Time,TemperatureF,DewpointF,PressureIn,WindDirection,WindDirectionDegrees,WindSpeedMPH,WindSpeedGustMPH,Humidity,HourlyPrecipIn,Conditions,Clouds,dailyrainin,SoftwareType,DateUTC
2013-07-05 00:05:00,75.7,70.9,30.16,WSW,254,3.0,4.0,85,0.00,,,0.00,Wunderground v.1.15,2013-07-05 04:05:00,
2013-07-05 00:06:00,75.7,70.9,30.16,WSW,238,0.0,4.0,85,0.00,,,0.00,Wunderground v.1.15,2013-07-05 04:06:00,
2013-07-05 00:07:00,75.7,70.9,30.16,WSW,238,3.0,4.0,85,0.00,,,0.00,Wunderground v.1.15,2013-07-05 04:07:00,
2013-07-05 00:10:00,75.6,70.8,30.16,South,190,0.0,4.0,85,0.00,,,0.00,Wunderground v.1.15,2013-07-05 04:10:00,
2013-07-05 00:11:00,75.6,70.8,30.16,South,190,0.0,4.0,85,0.00,,,0.00,Wunderground v.1.15,2013-07-05 04:11:00,
2013-07-05 00:12:00,75.6,70.8,30.16,WNW,294,3.0,4.0,85,0.00,,,0.00,Wunderground v.1.15,2013-07-05 04:12:00,
2013-07-05 00:15:00,75.5,70.7,30.16,SSW,211,3.0,8.0,85,0.00,,,0.00,Wunderground v.1.15,2013-07-05 04:15:00,
2013-07-05 00:16:00,75.5,70.7,30.16,SSW,198,3.0,8.0,85,0.00,,,0.00,Wunderground v.1.15,2013-07-05 04:16:00,
2013-07-05 00:17:00,75.5,70.7,30.16,West,259,4.0,8.0,85,0.00,,,0.00,Wunderground v.1.15,2013-07-05 04:17:00,
2013-07-05 00:20:00,75.5,70.7,30.16,SSW,212,1.0,8.0,85,0.00,,,0.00,Wunderground v.1.15,2013-07-05 04:20:00,
2013-07-05 00:21:00,75.5,70.7,30.16,WNW,296,2.0,8.0,85,0.00,,,0.00,Wunderground v.1.15,2013-07-05 04:21:00,
2013-07-05 00:22:00,75.5,70.7,30.16,South,190,1.0,8.0,85,0.00,,,0.00,Wunderground v.1.15,2013-07-05 04:22:00,
2013-07-05 00:27:00,75.5,70.7,30.16,SSW,192,3.0,9.0,85,0.00,,,0.00,Wunderground v.1.15,2013-07-05 04:27:00,
2013-07-05 00:28:00,75.5,70.7,30.16,SW,217,4.0,9.0,85,0.00,,,0.00,Wunderground v.1.15,2013-07-05 04:28:00,
2013-07-05 00:31:00,75.4,70.6,30.16,West,262,3.0,9.0,85,0.00,,,0.00,Wunderground v.1.15,2013-07-05 04:31:00,
2013-07-05 00:34:00,75.4,70.9,30.16,WSW,241,6.0,6.0,86,0.00,,,0.00,Wunderground v.1.15,2013-07-05 04:34:00,
2013-07-05 00:35:00,75.4,70.6,30.16,SW,235,5.0,6.0,85,0.00,,,0.00,Wunderground v.1.15,2013-07-05 04:35:00,
2013-07-05 00:38:00,75.3,70.5,30.16,SW,225,0.0,6.0,85,0.00,,,0.00,Wunderground v.1.15,2013-07-05 04:38:00,
2013-07-05 00:40:00,75.3,70.5,30.16,SW,220,4.0,6.0,85,0.00,,,0.00,Wunderground v.1.15,2013-07-05 04:40:00,
2013-07-05 00:41:00,75.3,70.5,30.16,South,180,0.0,6.0,85,0.00,,,0.00,Wunderground v.1.15,2013-07-05 04:41:00,
2013-07-05 00:42:00,75.3,70.5,30.16,SSW,212,5.0,6.0,85,0.00,,,0.00,Wunderground v.1.15,2013-07-05 04:42:00,
2013-07-05 00:44:00,75.2,70.4,30.16,South,185,2.0,3.0,85,0.00,,,0.00,Wunderground v.1.15,2013-07-05 04:44:00,
2013-07-05 00:46:00,75.2,70.4,30.16,SW,224,3.0,5.0,85,0.00,,,0.00,Wunderground v.1.15,2013-07-05 04:46:00,
2013-07-05 00:49:00,75.2,70.4,30.16,SSE,163,0.0,5.0,85,0.00,,,0.00,Wunderground v.1.15,2013-07-05 04:49:00,
2013-07-05 00:50:00,75.1,70.6,30.16,South,174,3.0,5.0,86,0.00,,,0.00,Wunderground v.1.15,2013-07-05 04:50:00,
2013-07-05 00:53:00,75.1,70.6,30.16,SW,223,3.0,3.0,86,0.00,,,0.00,Wunderground v.1.15,2013-07-05 04:53:00,
2013-07-05 00:55:00,75.0,70.5,30.16,SW,236,3.0,3.0,86,0.00,,,0.00,Wunderground v.1.15,2013-07-05 04:55:00,
2013-07-05 00:58:00,75.0,70.5,30.16,WNW,286,2.0,6.0,86,0.00,,,0.00,Wunderground v.1.15,2013-07-05 04:58:00,
2013-07-05 00:59:00,75.0,70.5,30.16,SSW,195,2.0,6.0,86,0.00,,,0.00,Wunderground v.1.15,2013-07-05 04:59:00,
2013-07-05 01:03:00,75.0,70.5,30.16,SW,223,2.0,3.0,86,0.00,,,0.00,Wunderground v.1.15,2013-07-05 05:03:00,
2013-07-05 01:06:00,74.9,70.4,30.16,SW,222,2.0,3.0,86,0.00,,,0.00,Wunderground v.1.15,2013-07-05 05:06:00,
2013-07-05 01:07:00,74.9,70.4,30.16,WSW,250,7.0,7.0,86,0.00,,,0.00,Wunderground v.1.15,2013-07-05 05:07:00,
2013-07-05 01:09:00,74.9,70.4,30.16,SW,223,2.0,7.0,86,0.00,,,0.00,Wunderground v.1.15,2013-07-05 05:09:00,
2013-07-05 01:13:00,74.9,70.4,30.16,SW,226,2.0,2.0,86,0.00,,,0.00,Wunderground v.1.15,2013-07-05 05:13:00,
2013-07-05 01:17:00,74.9,70.4,30.16,WSW,254,2.0,3.0,86,0.00,,,0.00,Wunderground v.1.15,2013-07-05 05:17:00,
2013-07-05 01:18:00,74.8,70.3,30.16,WSW,254,1.0,3.0,86,0.00,,,0.00,Wunderground v.1.15,2013-07-05 05:18:00,
2013-07-05 01:23:00,74.9,70.4,30.16,SW,232,3.0,3.0,86,0.00,,,0.00,Wunderground v.1.15,2013-07-05 05:23:00,
2013-07-05 01:24:00,74.9,70.4,30.15,SW,231,0.0,3.0,86,0.00,,,0.00,Wunderground v.1.15,2013-07-05 05:24:00,
2013-07-05 01:25:00,74.9,70.4,30.15,WSW,250,3.0,3.0,86,0.00,,,0.00,Wunderground v.1.15,2013-07-05 05:25:00,
2013-07-05 01:29:00,74.9,70.4,30.15,WSW,250,0.0,3.0,86,0.00,,,0.00,Wunderground v.1.15,2013-07-05 05:29:00,
2013-07-05 01:30:00,74.9,70.4,30.15,SSW,194,0.0,3.0,86,0.00,,,0.00,Wunderground v.1.15,2013-07-05 05:30:00,
2013-07-05 01:32:00,74.9,70.4,30.15,WSW,240,3.0,3.0,86,0.00,,,0.00,Wunderground v.1.15,2013-07-05 05:32:00,
2013-07-05 01:34:00,74.9,70.4,30.15,WSW,240,2.0,2.0,86,0.00,,,0.00,Wunderground v.1.15,2013-07-05 05:34:00,
2013-07-05 01:35:00,74.9,70.4,30.15,SSE,165,2.0,2.0,86,0.00,,,0.00,Wunderground v.1.15,2013-07-05 05:35:00,
2013-07-05 01:36:00,74.9,70.4,30.15,WSW,257,3.0,3.0,86,0.00,,,0.00,Wunderground v.1.15,2013-07-05 05:36:00,
2013-07-05 01:37:00,74.9,70.4,30.15,SW,229,2.0,3.0,86,0.00,,,0.00,Wunderground v.1.15,2013-07-05 05:37:00,
2013-07-05 01:39:00,74.9,70.4,30.15,WSW,246,3.0,5.0,86,0.00,,,0.00,Wunderground v.1.15,2013-07-05 05:39:00,
2013-07-05 01:41:00,74.9,70.4,30.15,SSW,205,1.0,5.0,86,0.00,,,0.00,Wunderground v.1.15,2013-07-05 05:41:00,
2013-07-05 01:44:00,74.8,70.3,30.15,WSW,239,5.0,5.0,86,0.00,,,0.00,Wunderground v.1.15,2013-07-05 05:44:00,
2013-07-05 01:46:00,74.9,70.4,30.15,WSW,244,1.0,5.0,86,0.00,,,0.00,Wunderground v.1.15,2013-07-05 05:46:00,
2013-07-05 01:47:00,74.9,70.4,30.15,SSW,198,4.0,5.0,86,0.00,,,0.00,Wunderground v.1.15,2013-07-05 05:47:00,
2013-07-05 01:50:00,74.9,70.1,30.15,SW,225,4.0,5.0,85,0.00,,,0.00,Wunderground v.1.15,2013-07-05 05:50:00,
2013-07-05 01:51:00,74.9,70.1,30.15,SW,234,3.0,5.0,85,0.00,,,0.00,Wunderground v.1.15,2013-07-05 05:51:00,
2013-07-05 01:53:00,74.9,70.1,30.15,West,263,2.0,3.0,85,0.00,,,0.00,Wunderground v.1.15,2013-07-05 05:53:00,
2013-07-05 01:55:00,74.9,70.1,30.15,East,97,3.0,3.0,85,0.00,,,0.00,Wunderground v.1.15,2013-07-05 05:55:00,
2013-07-05 01:57:00,74.9,70.1,30.15,SW,231,2.0,3.0,85,0.00,,,0.00,Wunderground v.1.15,2013-07-05 05:57:00,
2013-07-05 01:59:00,75.0,70.2,30.15,West,265,1.0,3.0,85,0.00,,,0.00,Wunderground v.1.15,2013-07-05 05:59:00,
2013-07-05 02:01:00,75.1,70.3,30.15,West,265,1.0,3.0,85,0.00,,,0.00,Wunderground v.1.15,2013-07-05 06:01:00,
2013-07-05 02:04:00,75.1,70.3,30.15,NW,304,2.0,3.0,85,0.00,,,0.00,Wunderground v.1.15,2013-07-05 06:04:00,
2013-07-05 02:06:00,75.1,70.3,30.15,West,273,0.0,3.0,85,0.00,,,0.00,Wunderground v.1.15,2013-07-05 06:06:00,
2013-07-05 02:07:00,75.1,70.3,30.15,WSW,245,3.0,3.0,85,0.00,,,0.00,Wunderground v.1.15,2013-07-05 06:07:00,
2013-07-05 02:12:00,75.1,70.3,30.15,SSW,211,2.0,3.0,85,0.00,,,0.00,Wunderground v.1.15,2013-07-05 06:12:00,
2013-07-05 02:13:00,75.1,70.3,30.15,SSW,211,2.0,2.0,85,0.00,,,0.00,Wunderground v.1.15,2013-07-05 06:13:00,
2013-07-05 02:14:00,75.1,70.3,30.15,NW,312,3.0,3.0,85,0.00,,,0.00,Wunderground v.1.15,2013-07-05 06:14:00,
2013-07-05 02:17:00,75.2,70.4,30.15,SW,225,1.0,3.0,85,0.00,,,0.00,Wunderground v.1.15,2013-07-05 06:17:00,
2013-07-05 02:19:00,75.1,70.3,30.15,SW,232,1.0,3.0,85,0.00,,,0.00,Wunderground v.1.15,2013-07-05 06:19:00,
2013-07-05 02:21:00,75.1,70.3,30.15,WSW,246,0.0,3.0,85,0.00,,,0.00,Wunderground v.1.15,2013-07-05 06:21:00,
2013-07-05 02:22:00,75.1,70.3,30.15,West,259,3.0,3.0,85,0.00,,,0.00,Wunderground v.1.15,2013-07-05 06:22:00,
2013-07-05 02:24:00,75.1,70.3,30.15,West,259,0.0,2.0,85,0.00,,,0.00,Wunderground v.1.15,2013-07-05 06:24:00,
2013-07-05 02:25:00,75.1,70.3,30.15,West,259,1.0,2.0,85,0.00,,,0.00,Wunderground v.1.15,2013-07-05 06:25:00,
2013-07-05 02:26:00,75.1,70.3,30.15,WSW,239,0.0,2.0,85,0.00,,,0.00,Wunderground v.1.15,2013-07-05 06:26:00,
2013-07-05 02:28:00,75.1,70.3,30.15,WSW,252,2.0,3.0,85,0.00,,,0.00,Wunderground v.1.15,2013-07-05 06:28:00,
2013-07-05 02:29:00,75.1,70.3,30.15,WSW,237,0.0,6.0,85,0.00,,,0.00,Wunderground v.1.15,2013-07-05 06:29:00,
2013-07-05 02:30:00,75.1,70.3,30.15,WSW,237,1.0,6.0,85,0.00,,,0.00,Wunderground v.1.15,2013-07-05 06:30:00,
2013-07-05 02:32:00,75.1,70.3,30.15,WNW,283,4.0,6.0,85,0.00,,,0.00,Wunderground v.1.15,2013-07-05 06:32:00,
2013-07-05 02:33:00,75.1,70.3,30.15,WSW,253,1.0,6.0,85,0.00,,,0.00,Wunderground v.1.15,2013-07-05 06:33:00,
2013-07-05 02:35:00,75.1,70.3,30.15,SW,221,5.0,6.0,85,0.00,,,0.00,Wunderground v.1.15,2013-07-05 06:35:00,
2013-07-05 02:38:00,75.1,70.3,30.15,NW,306,4.0,6.0,85,0.00,,,0.00,Wunderground v.1.15,2013-07-05 06:38:00,
2013-07-05 02:40:00,75.1,70.3,30.15,NW,317,3.0,7.0,85,0.00,,,0.00,Wunderground v.1.15,2013-07-05 06:40:00,
2013-07-05 02:41:00,75.1,70.3,30.15,SW,219,5.0,7.0,85,0.00,,,0.00,Wunderground v.1.15,2013-07-05 06:41:00,
2013-07-05 02:43:00,75.2,70.4,30.15,NW,318,4.0,10.0,85,0.00,,,0.00,Wunderground v.1.15,2013-07-05 06:43:00,
2013-07-05 02:44:00,75.2,70.4,30.15,NW,323,3.0,5.0,85,0.00,,,0.00,Wunderground v.1.15,2013-07-05 06:44:00,
2013-07-05 02:45:00,75.2,70.4,30.15,West,269,2.0,5.0,85,0.00,,,0.00,Wunderground v.1.15,2013-07-05 06:45:00,
2013-07-05 02:46:00,75.1,70.3,30.15,West,267,3.0,5.0,85,0.00,,,0.00,Wunderground v.1.15,2013-07-05 06:46:00,
2013-07-05 02:49:00,75.1,70.3,30.15,NW,309,2.0,8.0,85,0.00,,,0.00,Wunderground v.1.15,2013-07-05 06:49:00,
2013-07-05 02:50:00,75.1,70.3,30.15,WNW,288,8.0,10.0,85,0.00,,,0.00,Wunderground v.1.15,2013-07-05 06:50:00,
2013-07-05 02:51:00,75.1,70.3,30.15,SW,223,2.0,10.0,85,0.00,,,0.00,Wunderground v.1.15,2013-07-05 06:51:00,
2013-07-05 02:54:00,75.1,70.3,30.15,SSW,211,2.0,3.0,85,0.00,,,0.00,Wunderground v.1.15,2013-07-05 06:54:00,
2013-07-05 02:55:00,75.1,70.3,30.15,WNW,300,2.0,3.0,85,0.00,,,0.00,Wunderground v.1.15,2013-07-05 06:55:00,
2013-07-05 02:56:00,75.1,70.3,30.15,West,272,3.0,8.0,85,0.00,,,0.00,Wunderground v.1.15,2013-07-05 06:56:00,
2013-07-05 02:59:00,75.1,70.3,30.15,West,263,7.0,11.0,85,0.00,,,0.00,Wunderground v.1.15,2013-07-05 06:59:00,
2013-07-05 03:00:00,75.1,70.3,30.15,WNW,297,3.0,11.0,85,0.00,,,0.00,Wunderground v.1.15,2013-07-05 07:00:00,
2013-07-05 03:01:00,75.1,70.3,30.15,WSW,250,4.0,11.0,85,0.00,,,0.00,Wunderground v.1.15,2013-07-05 07:01:00,
2013-07-05 03:04:00,75.1,70.3,30.15,West,263,1.0,3.0,85,0.00,,,0.00,Wunderground v.1.15,2013-07-05 07:04:00,
2013-07-05 03:05:00,75.0,70.2,30.15,WNW,282,2.0,4.0,85,0.00,,,0.00,Wunderground v.1.15,2013-07-05 07:05:00,
2013-07-05 03:06:00,75.0,70.2,30.15,West,281,1.0,4.0,85,0.00,,,0.00,Wunderground v.1.15,2013-07-05 07:06:00,
2013-07-05 03:07:00,75.0,70.2,30.15,WNW,290,3.0,7.0,85,0.00,,,0.00,Wunderground v.1.15,2013-07-05 07:07:00,
2013-07-05 03:09:00,75.0,70.2,30.15,South,174,2.0,8.0,85,0.00,,,0.00,Wunderground v.1.15,2013-07-05 07:09:00,
2013-07-05 03:10:00,74.9,70.1,30.15,South,182,5.0,8.0,85,0.00,,,0.00,Wunderground v.1.15,2013-07-05 07:10:00,
2013-07-05 03:11:00,74.9,70.1,30.15,WSW,252,7.0,8.0,85,0.00,,,0.00,Wunderground v.1.15,2013-07-05 07:11:00,
2013-07-05 03:12:00,74.9,70.1,30.15,West,259,1.0,8.0,85,0.00,,,0.00,Wunderground v.1.15,2013-07-05 07:12:00,
2013-07-05 03:15:00,75.0,70.2,30.15,SW,234,3.0,4.0,85,0.00,,,0.00,Wunderground v.1.15,2013-07-05 07:15:00,
2013-07-05 03:16:00,75.0,70.2,30.15,NW,306,4.0,8.0,85,0.00,,,0.00,Wunderground v.1.15,2013-07-05 07:16:00,
2013-07-05 03:18:00,75.1,70.3,30.15,WNW,290,7.0,10.0,85,0.00,,,0.00,Wunderground v.1.15,2013-07-05 07:18:00,
2013-07-05 03:20:00,75.1,70.3,30.15,WNW,283,4.0,10.0,85,0.00,,,0.00,Wunderground v.1.15,2013-07-05 07:20:00,
2013-07-05 03:21:00,75.1,70.3,30.15,West,259,3.0,10.0,85,0.00,,,0.00,Wunderground v.1.15,2013-07-05 07:21:00,
2013-07-05 03:23:00,75.1,70.3,30.15,North,349,2.0,10.0,85,0.00,,,0.00,Wunderground v.1.15,2013-07-05 07:23:00,
2013-07-05 03:25:00,75.1,70.3,30.15,WNW,287,4.0,6.0,85,0.00,,,0.00,Wunderground v.1.15,2013-07-05 07:25:00,
2013-07-05 03:26:00,75.1,70.3,30.15,WSW,257,7.0,8.0,85,0.00,,,0.00,Wunderground v.1.15,2013-07-05 07:26:00,
2013-07-05 03:28:00,75.1,70.3,30.15,WNW,283,2.0,9.0,85,0.00,,,0.00,Wunderground v.1.15,2013-07-05 07:28:00,
2013-07-05 03:30:00,75.0,70.2,30.15,WSW,238,4.0,9.0,85,0.00,,,0.00,Wunderground v.1.15,2013-07-05 07:30:00,
2013-07-05 03:31:00,75.0,70.2,30.15,West,275,3.0,9.0,85,0.00,,,0.00,Wunderground v.1.15,2013-07-05 07:31:00,
2013-07-05 03:34:00,75.0,70.2,30.15,West,281,6.0,6.0,85,0.00,,,0.00,Wunderground v.1.15,2013-07-05 07:34:00,
2013-07-05 03:35:00,75.0,70.2,30.15,WNW,296,3.0,8.0,85,0.00,,,0.00,Wunderground v.1.15,2013-07-05 07:35:00,
2013-07-05 03:36:00,75.0,70.2,30.15,WSW,241,5.0,8.0,85,0.00,,,0.00,Wunderground v.1.15,2013-07-05 07:36:00,
2013-07-05 03:37:00,75.0,70.2,30.15,NW,304,2.0,8.0,85,0.00,,,0.00,Wunderground v.1.15,2013-07-05 07:37:00,
2013-07-05 03:39:00,74.9,70.1,30.15,WNW,299,5.0,8.0,85,0.00,,,0.00,Wunderground v.1.15,2013-07-05 07:39:00,
2013-07-05 03:40:00,74.9,70.1,30.15,WNW,293,3.0,8.0,85,0.00,,,0.00,Wunderground v.1.15,2013-07-05 07:40:00,
2013-07-05 03:41:00,74.9,70.1,30.15,NW,306,4.0,8.0,85,0.00,,,0.00,Wunderground v.1.15,2013-07-05 07:41:00,
2013-07-05 03:42:00,74.9,70.1,30.15,WSW,238,2.0,11.0,85,0.00,,,0.00,Wunderground v.1.15,2013-07-05 07:42:00,
2013-07-05 03:44:00,74.9,70.1,30.15,West,262,3.0,4.0,85,0.00,,,0.00,Wunderground v.1.15,2013-07-05 07:44:00,
2013-07-05 03:46:00,74.9,70.1,30.15,West,267,2.0,9.0,85,0.00,,,0.00,Wunderground v.1.15,2013-07-05 07:46:00,
2013-07-05 03:47:00,74.8,70.0,30.15,WNW,290,3.0,9.0,85,0.00,,,0.00,Wunderground v.1.15,2013-07-05 07:47:00,
2013-07-05 03:49:00,74.8,70.0,30.15,WSW,241,5.0,9.0,85,0.00,,,0.00,Wunderground v.1.15,2013-07-05 07:49:00,
2013-07-05 03:51:00,74.8,70.0,30.15,SW,221,4.0,9.0,85,0.00,,,0.00,Wunderground v.1.15,2013-07-05 07:51:00,
2013-07-05 03:53:00,74.8,70.0,30.15,WSW,245,7.0,9.0,85,0.00,,,0.00,Wunderground v.1.15,2013-07-05 07:53:00,
2013-07-05 03:55:00,74.7,69.9,30.15,SW,227,2.0,6.0,85,0.00,,,0.00,Wunderground v.1.15,2013-07-05 07:55:00,
2013-07-05 03:56:00,74.7,69.9,30.15,SW,229,1.0,6.0,85,0.00,,,0.00,Wunderground v.1.15,2013-07-05 07:56:00,
2013-07-05 03:58:00,74.7,69.9,30.15,SW,217,1.0,6.0,85,0.00,,,0.00,Wunderground v.1.15,2013-07-05 07:58:00,
2013-07-05 04:00:00,74.6,69.8,30.15,West,262,2.0,6.0,85,0.00,,,0.00,Wunderground v.1.15,2013-07-05 08:00:00,
2013-07-05 04:01:00,74.6,69.8,30.15,West,262,3.0,6.0,85,0.00,,,0.00,Wunderground v.1.15,2013-07-05 08:01:00,
2013-07-05 04:02:00,74.6,69.8,30.15,NNW,344,5.0,6.0,85,0.00,,,0.00,Wunderground v.1.15,2013-07-05 08:02:00,
2013-07-05 04:03:00,74.6,69.8,30.15,WSW,240,3.0,10.0,85,0.00,,,0.00,Wunderground v.1.15,2013-07-05 08:03:00,
2013-07-05 04:05:00,74.5,69.7,30.15,WSW,238,1.0,4.0,85,0.00,,,0.00,Wunderground v.1.15,2013-07-05 08:05:00,
2013-07-05 04:06:00,74.4,69.6,30.15,SW,232,5.0,6.0,85,0.00,,,0.00,Wunderground v.1.15,2013-07-05 08:06:00,
2013-07-05 04:07:00,74.4,69.6,30.15,SSW,196,2.0,6.0,85,0.00,,,0.00,Wunderground v.1.15,2013-07-05 08:07:00,
2013-07-05 04:08:00,74.4,69.6,30.15,SSW,196,1.0,6.0,85,0.00,,,0.00,Wunderground v.1.15,2013-07-05 08:08:00,
2013-07-05 04:10:00,74.4,69.6,30.15,SW,217,1.0,6.0,85,0.00,,,0.00,Wunderground v.1.15,2013-07-05 08:10:00,
2013-07-05 04:11:00,74.3,69.8,30.15,West,274,4.0,7.0,86,0.00,,,0.00,Wunderground v.1.15,2013-07-05 08:11:00,
2013-07-05 04:12:00,74.3,69.8,30.15,West,274,1.0,7.0,86,0.00,,,0.00,Wunderground v.1.15,2013-07-05 08:12:00,
2013-07-05 04:13:00,74.3,69.8,30.15,West,269,2.0,2.0,86,0.00,,,0.00,Wunderground v.1.15,2013-07-05 08:13:00,
2013-07-05 04:15:00,74.3,69.8,30.15,SSE,167,1.0,8.0,86,0.00,,,0.00,Wunderground v.1.15,2013-07-05 08:15:00,
2013-07-05 04:16:00,74.3,69.8,30.15,WNW,292,2.0,8.0,86,0.00,,,0.00,Wunderground v.1.15,2013-07-05 08:16:00,
2013-07-05 04:17:00,74.3,69.8,30.15,WSW,251,7.0,9.0,86,0.00,,,0.00,Wunderground v.1.15,2013-07-05 08:17:00,
2013-07-05 04:18:00,74.3,69.8,30.15,SW,227,4.0,9.0,86,0.00,,,0.00,Wunderground v.1.15,2013-07-05 08:18:00,
2013-07-05 04:20:00,74.3,69.8,30.15,WNW,290,0.0,9.0,86,0.00,,,0.00,Wunderground v.1.15,2013-07-05 08:20:00,
2013-07-05 04:22:00,74.2,69.7,30.15,WNW,294,2.0,9.0,86,0.00,,,0.00,Wunderground v.1.15,2013-07-05 08:22:00,
2013-07-05 04:23:00,74.2,69.7,30.15,West,269,1.0,3.0,86,0.00,,,0.00,Wunderground v.1.15,2013-07-05 08:23:00,
2013-07-05 04:25:00,74.3,69.8,30.15,West,262,3.0,6.0,86,0.00,,,0.00,Wunderground v.1.15,2013-07-05 08:25:00,
2013-07-05 04:27:00,74.2,69.7,30.15,SW,235,1.0,6.0,86,0.00,,,0.00,Wunderground v.1.15,2013-07-05 08:27:00,
2013-07-05 04:28:00,74.2,69.7,30.15,West,270,4.0,6.0,86,0.00,,,0.00,Wunderground v.1.15,2013-07-05 08:28:00,
2013-07-05 04:29:00,74.2,69.7,30.15,West,281,4.0,6.0,86,0.00,,,0.00,Wunderground v.1.15,2013-07-05 08:29:00,
2013-07-05 04:31:00,74.2,69.7,30.15,West,266,2.0,6.0,86,0.00,,,0.00,Wunderground v.1.15,2013-07-05 08:31:00,
2013-07-05 04:32:00,74.2,69.7,30.15,WNW,288,0.0,6.0,86,0.00,,,0.00,Wunderground v.1.15,2013-07-05 08:32:00,
2013-07-05 04:33:00,74.2,69.7,30.15,SSW,209,2.0,3.0,86,0.00,,,0.00,Wunderground v.1.15,2013-07-05 08:33:00,
2013-07-05 04:34:00,74.2,69.7,30.15,SSW,209,0.0,3.0,86,0.00,,,0.00,Wunderground v.1.15,2013-07-05 08:34:00,
2013-07-05 04:36:00,74.1,69.6,30.15,SSW,209,1.0,3.0,86,0.00,,,0.00,Wunderground v.1.15,2013-07-05 08:36:00,
2013-07-05 04:37:00,74.1,69.6,30.15,SW,221,2.0,3.0,86,0.00,,,0.00,Wunderground v.1.15,2013-07-05 08:37:00,
2013-07-05 04:39:00,74.1,69.6,30.15,West,267,2.0,4.0,86,0.00,,,0.00,Wunderground v.1.15,2013-07-05 08:39:00,
2013-07-05 04:41:00,74.0,69.5,30.15,WSW,246,3.0,4.0,86,0.00,,,0.00,Wunderground v.1.15,2013-07-05 08:41:00,
2013-07-05 04:42:00,74.0,69.5,30.16,West,261,2.0,4.0,86,0.00,,,0.00,Wunderground v.1.15,2013-07-05 08:42:00,
2013-07-05 04:44:00,74.0,69.5,30.15,West,268,1.0,3.0,86,0.00,,,0.00,Wunderground v.1.15,2013-07-05 08:44:00,
2013-07-05 04:46:00,74.0,69.5,30.16,West,265,1.0,4.0,86,0.00,,,0.00,Wunderground v.1.15,2013-07-05 08:46:00,
2013-07-05 04:47:00,74.0,69.5,30.16,West,265,2.0,4.0,86,0.00,,,0.00,Wunderground v.1.15,2013-07-05 08:47:00,
2013-07-05 04:48:00,74.0,69.5,30.16,West,265,2.0,4.0,86,0.00,,,0.00,Wunderground v.1.15,2013-07-05 08:48:00,
2013-07-05 04:49:00,74.0,69.5,30.16,West,265,1.0,4.0,86,0.00,,,0.00,Wunderground v.1.15,2013-07-05 08:49:00,
2013-07-05 04:50:00,74.0,69.5,30.16,West,265,1.0,4.0,86,0.00,,,0.00,Wunderground v.1.15,2013-07-05 08:50:00,
2013-07-05 04:51:00,73.9,69.4,30.16,West,263,2.0,4.0,86,0.00,,,0.00,Wunderground v.1.15,2013-07-05 08:51:00,
2013-07-05 04:52:00,74.0,69.5,30.16,SSW,198,2.0,4.0,86,0.00,,,0.00,Wunderground v.1.15,2013-07-05 08:52:00,
2013-07-05 04:55:00,74.0,69.5,30.16,SW,222,0.0,2.0,86,0.00,,,0.00,Wunderground v.1.15,2013-07-05 08:55:00,
2013-07-05 04:56:00,73.9,69.4,30.16,SW,222,0.0,2.0,86,0.00,,,0.00,Wunderground v.1.15,2013-07-05 08:56:00,
2013-07-05 04:58:00,73.9,69.4,30.16,West,274,2.0,3.0,86,0.00,,,0.00,Wunderground v.1.15,2013-07-05 08:58:00,
2013-07-05 05:01:00,73.9,69.4,30.16,SW,235,0.0,4.0,86,0.00,,,0.00,Wunderground v.1.15,2013-07-05 09:01:00,
2013-07-05 05:02:00,73.9,69.4,30.16,SW,235,0.0,4.0,86,0.00,,,0.00,Wunderground v.1.15,2013-07-05 09:02:00,
2013-07-05 05:04:00,73.8,69.3,30.16,WSW,258,2.0,3.0,86,0.00,,,0.00,Wunderground v.1.15,2013-07-05 09:04:00,
2013-07-05 05:06:00,73.8,69.3,30.16,West,274,1.0,4.0,86,0.00,,,0.00,Wunderground v.1.15,2013-07-05 09:06:00,
2013-07-05 05:08:00,73.8,69.3,30.16,West,274,0.0,4.0,86,0.00,,,0.00,Wunderground v.1.15,2013-07-05 09:08:00,
2013-07-05 05:09:00,73.8,69.3,30.16,West,274,0.0,4.0,86,0.00,,,0.00,Wunderground v.1.15,2013-07-05 09:09:00,
2013-07-05 05:12:00,73.8,69.3,30.16,WSW,247,2.0,4.0,86,0.00,,,0.00,Wunderground v.1.15,2013-07-05 09:12:00,
2013-07-05 05:15:00,73.7,69.2,30.16,WSW,247,1.0,2.0,86,0.00,,,0.00,Wunderground v.1.15,2013-07-05 09:15:00,
2013-07-05 05:16:00,73.7,69.2,30.16,WSW,247,0.0,2.0,86,0.00,,,0.00,Wunderground v.1.15,2013-07-05 09:16:00,
2013-07-05 05:17:00,73.7,69.2,30.16,WSW,247,0.0,2.0,86,0.00,,,0.00,Wunderground v.1.15,2013-07-05 09:17:00,
2013-07-05 05:20:00,73.6,69.5,30.16,WSW,255,3.0,4.0,87,0.00,,,0.00,Wunderground v.1.15,2013-07-05 09:20:00,
2013-07-05 05:21:00,73.7,69.6,30.16,West,259,2.0,4.0,87,0.00,,,0.00,Wunderground v.1.15,2013-07-05 09:21:00,
2013-07-05 05:23:00,73.7,69.2,30.16,West,259,0.0,4.0,86,0.00,,,0.00,Wunderground v.1.15,2013-07-05 09:23:00,
2013-07-05 05:24:00,73.7,69.2,30.16,West,259,1.0,2.0,86,0.00,,,0.00,Wunderground v.1.15,2013-07-05 09:24:00,
2013-07-05 05:26:00,73.7,69.2,30.16,West,259,0.0,2.0,86,0.00,,,0.00,Wunderground v.1.15,2013-07-05 09:26:00,
2013-07-05 05:28:00,73.7,69.2,30.16,West,259,1.0,2.0,86,0.00,,,0.00,Wunderground v.1.15,2013-07-05 09:28:00,
2013-07-05 05:29:00,73.6,69.5,30.16,West,259,3.0,3.0,87,0.00,,,0.00,Wunderground v.1.15,2013-07-05 09:29:00,
2013-07-05 05:31:00,73.6,69.5,30.17,West,259,2.0,3.0,87,0.00,,,0.00,Wunderground v.1.15,2013-07-05 09:31:00,
2013-07-05 05:32:00,73.6,69.5,30.17,West,259,1.0,3.0,87,0.00,,,0.00,Wunderground v.1.15,2013-07-05 09:32:00,
2013-07-05 05:33:00,73.6,69.5,30.17,West,259,0.0,1.0,87,0.00,,,0.00,Wunderground v.1.15,2013-07-05 09:33:00,
2013-07-05 05:35:00,73.5,69.4,30.17,West,259,0.0,1.0,87,0.00,,,0.00,Wunderground v.1.15,2013-07-05 09:35:00,
2013-07-05 05:36:00,73.5,69.4,30.17,West,259,0.0,1.0,87,0.00,,,0.00,Wunderground v.1.15,2013-07-05 09:36:00,
2013-07-05 05:37:00,73.5,69.4,30.17,West,259,0.0,2.0,87,0.00,,,0.00,Wunderground v.1.15,2013-07-05 09:37:00,
2013-07-05 05:39:00,73.5,69.4,30.17,West,259,0.0,2.0,87,0.00,,,0.00,Wunderground v.1.15,2013-07-05 09:39:00,
2013-07-05 05:41:00,73.5,69.4,30.17,West,259,0.0,2.0,87,0.00,,,0.00,Wunderground v.1.15,2013-07-05 09:41:00,
2013-07-05 05:42:00,73.4,69.3,30.17,West,259,0.0,2.0,87,0.00,,,0.00,Wunderground v.1.15,2013-07-05 09:42:00,
2013-07-05 05:43:00,73.4,69.3,30.17,West,259,3.0,3.0,87,0.00,,,0.00,Wunderground v.1.15,2013-07-05 09:43:00,
2013-07-05 05:44:00,73.4,69.3,30.17,West,263,2.0,3.0,87,0.00,,,0.00,Wunderground v.1.15,2013-07-05 09:44:00,
2013-07-05 05:46:00,73.5,69.4,30.17,West,263,3.0,3.0,87,0.00,,,0.00,Wunderground v.1.15,2013-07-05 09:46:00,
2013-07-05 05:47:00,73.5,69.4,30.17,West,263,0.0,3.0,87,0.00,,,0.00,Wunderground v.1.15,2013-07-05 09:47:00,
2013-07-05 05:48:00,73.5,69.4,30.17,West,263,1.0,3.0,87,0.00,,,0.00,Wunderground v.1.15,2013-07-05 09:48:00,
2013-07-05 05:50:00,73.5,69.4,30.17,West,263,0.0,3.0,87,0.00,,,0.00,Wunderground v.1.15,2013-07-05 09:50:00,
2013-07-05 05:51:00,73.5,69.4,30.17,West,263,1.0,3.0,87,0.00,,,0.00,Wunderground v.1.15,2013-07-05 09:51:00,
2013-07-05 05:53:00,73.4,69.3,30.17,West,263,1.0,3.0,87,0.00,,,0.00,Wunderground v.1.15,2013-07-05 09:53:00,
2013-07-05 05:55:00,73.4,69.3,30.17,SW,234,2.0,3.0,87,0.00,,,0.00,Wunderground v.1.15,2013-07-05 09:55:00,
2013-07-05 05:56:00,73.4,69.3,30.17,WSW,244,2.0,3.0,87,0.00,,,0.00,Wunderground v.1.15,2013-07-05 09:56:00,
2013-07-05 05:58:00,73.4,69.3,30.17,WSW,243,1.0,3.0,87,0.00,,,0.00,Wunderground v.1.15,2013-07-05 09:58:00,
2013-07-05 05:59:00,73.4,69.3,30.17,WSW,243,1.0,3.0,87,0.00,,,0.00,Wunderground v.1.15,2013-07-05 09:59:00,
2013-07-05 06:01:00,73.4,69.3,30.17,WSW,243,0.0,3.0,87,0.00,,,0.00,Wunderground v.1.15,2013-07-05 10:01:00,
2013-07-05 06:03:00,73.4,69.3,30.17,SSW,211,1.0,2.0,87,0.00,,,0.00,Wunderground v.1.15,2013-07-05 10:03:00,
2013-07-05 06:05:00,73.4,69.3,30.17,SW,232,0.0,6.0,87,0.00,,,0.00,Wunderground v.1.15,2013-07-05 10:05:00,
2013-07-05 06:06:00,73.4,69.3,30.17,SW,232,2.0,6.0,87,0.00,,,0.00,Wunderground v.1.15,2013-07-05 10:06:00,
2013-07-05 06:07:00,73.4,69.3,30.17,SW,229,4.0,6.0,87,0.00,,,0.00,Wunderground v.1.15,2013-07-05 10:07:00,
2013-07-05 06:10:00,73.5,69.4,30.17,SW,228,1.0,6.0,87,0.00,,,0.00,Wunderground v.1.15,2013-07-05 10:10:00,
2013-07-05 06:11:00,73.5,69.4,30.17,SW,227,2.0,6.0,87,0.00,,,0.00,Wunderground v.1.15,2013-07-05 10:11:00,
2013-07-05 06:12:00,73.5,69.4,30.17,WSW,252,0.0,6.0,87,0.00,,,0.00,Wunderground v.1.15,2013-07-05 10:12:00,
2013-07-05 06:14:00,73.6,69.5,30.17,WSW,246,2.0,2.0,87,0.00,,,0.00,Wunderground v.1.15,2013-07-05 10:14:00,
2013-07-05 06:16:00,73.6,69.5,30.17,WSW,257,1.0,3.0,87,0.00,,,0.00,Wunderground v.1.15,2013-07-05 10:16:00,
2013-07-05 06:18:00,73.7,69.6,30.17,WSW,243,2.0,5.0,87,0.00,,,0.00,Wunderground v.1.15,2013-07-05 10:18:00,
2013-07-05 06:20:00,73.8,69.7,30.17,SW,222,3.0,5.0,87,0.00,,,0.00,Wunderground v.1.15,2013-07-05 10:20:00,
2013-07-05 06:22:00,73.9,69.8,30.17,SSW,204,1.0,5.0,87,0.00,,,0.00,Wunderground v.1.15,2013-07-05 10:22:00,
2013-07-05 06:24:00,73.9,69.8,30.17,West,271,4.0,4.0,87,0.00,,,0.00,Wunderground v.1.15,2013-07-05 10:24:00,
2013-07-05 06:27:00,74.0,69.9,30.17,SSW,192,0.0,8.0,87,0.00,,,0.00,Wunderground v.1.15,2013-07-05 10:27:00,
2013-07-05 06:28:00,74.0,69.9,30.17,SSW,192,0.0,8.0,87,0.00,,,0.00,Wunderground v.1.15,2013-07-05 10:28:00,
2013-07-05 06:30:00,74.2,70.1,30.17,WSW,256,5.0,8.0,87,0.00,,,0.00,Wunderground v.1.15,2013-07-05 10:30:00,
2013-07-05 06:31:00,74.2,70.1,30.17,SW,225,3.0,8.0,87,0.00,,,0.00,Wunderground v.1.15,2013-07-05 10:31:00,
2013-07-05 06:33:00,74.3,69.8,30.17,SSW,205,2.0,2.0,86,0.00,,,0.00,Wunderground v.1.15,2013-07-05 10:33:00,
2013-07-05 06:35:00,74.3,69.8,30.17,WSW,243,3.0,3.0,86,0.00,,,0.00,Wunderground v.1.15,2013-07-05 10:35:00,
2013-07-05 06:37:00,74.4,69.9,30.18,WSW,250,1.0,3.0,86,0.00,,,0.00,Wunderground v.1.15,2013-07-05 10:37:00,
2013-07-05 06:38:00,74.4,69.9,30.18,SW,214,2.0,4.0,86,0.00,,,0.00,Wunderground v.1.15,2013-07-05 10:38:00,
2013-07-05 06:39:00,74.4,69.9,30.18,WSW,248,5.0,5.0,86,0.00,,,0.00,Wunderground v.1.15,2013-07-05 10:39:00,
2013-07-05 06:41:00,74.4,69.9,30.18,SSW,205,3.0,5.0,86,0.00,,,0.00,Wunderground v.1.15,2013-07-05 10:41:00,
2013-07-05 06:42:00,74.4,69.9,30.18,South,189,3.0,5.0,86,0.00,,,0.00,Wunderground v.1.15,2013-07-05 10:42:00,
2013-07-05 06:44:00,74.4,69.9,30.18,South,190,4.0,6.0,86,0.00,,,0.00,Wunderground v.1.15,2013-07-05 10:44:00,
2013-07-05 06:47:00,74.5,70.0,30.18,South,177,2.0,6.0,86,0.00,,,0.00,Wunderground v.1.15,2013-07-05 10:47:00,
2013-07-05 06:49:00,74.6,70.1,30.18,SW,234,4.0,6.0,86,0.00,,,0.00,Wunderground v.1.15,2013-07-05 10:49:00,
2013-07-05 06:52:00,74.6,70.1,30.17,South,186,4.0,6.0,86,0.00,,,0.00,Wunderground v.1.15,2013-07-05 10:52:00,
2013-07-05 06:55:00,74.7,70.2,30.18,SSW,202,4.0,6.0,86,0.00,,,0.00,Wunderground v.1.15,2013-07-05 10:55:00,
2013-07-05 06:57:00,74.7,70.2,30.18,SSW,202,2.0,6.0,86,0.00,,,0.00,Wunderground v.1.15,2013-07-05 10:57:00,
2013-07-05 06:59:00,74.7,70.2,30.18,SSW,209,5.0,6.0,86,0.00,,,0.00,Wunderground v.1.15,2013-07-05 10:59:00,
2013-07-05 07:00:00,74.8,70.3,30.18,SW,223,0.0,6.0,86,0.00,,,0.00,Wunderground v.1.15,2013-07-05 11:00:00,
2013-07-05 07:03:00,74.9,70.4,30.18,SW,228,4.0,6.0,86,0.00,,,0.00,Wunderground v.1.15,2013-07-05 11:03:00,
2013-07-05 07:05:00,74.9,70.4,30.18,WNW,286,1.0,9.0,86,0.00,,,0.00,Wunderground v.1.15,2013-07-05 11:05:00,
2013-07-05 07:06:00,75.0,70.5,30.18,WSW,237,4.0,9.0,86,0.00,,,0.00,Wunderground v.1.15,2013-07-05 11:06:00,
2013-07-05 07:08:00,75.1,70.6,30.18,WSW,257,5.0,9.0,86,0.00,,,0.00,Wunderground v.1.15,2013-07-05 11:08:00,
2013-07-05 07:10:00,75.2,70.4,30.18,SSW,212,4.0,11.0,85,0.00,,,0.00,Wunderground v.1.15,2013-07-05 11:10:00,
2013-07-05 07:11:00,75.2,70.4,30.18,WSW,246,4.0,11.0,85,0.00,,,0.00,Wunderground v.1.15,2013-07-05 11:11:00,
2013-07-05 07:14:00,75.4,70.9,30.18,WSW,246,3.0,4.0,86,0.00,,,0.00,Wunderground v.1.15,2013-07-05 11:14:00,
2013-07-05 07:16:00,75.5,71.0,30.18,WSW,246,0.0,4.0,86,0.00,,,0.00,Wunderground v.1.15,2013-07-05 11:16:00,
2013-07-05 07:17:00,75.6,71.1,30.18,WSW,245,2.0,4.0,86,0.00,,,0.00,Wunderground v.1.15,2013-07-05 11:17:00,
2013-07-05 07:20:00,75.7,70.9,30.18,SW,230,0.0,9.0,85,0.00,,,0.00,Wunderground v.1.15,2013-07-05 11:20:00,
2013-07-05 07:21:00,75.8,71.0,30.18,WSW,239,2.0,9.0,85,0.00,,,0.00,Wunderground v.1.15,2013-07-05 11:21:00,
2013-07-05 07:22:00,75.8,71.0,30.18,SSW,206,2.0,9.0,85,0.00,,,0.00,Wunderground v.1.15,2013-07-05 11:22:00,
2013-07-05 07:23:00,75.9,71.1,30.18,SW,223,3.0,3.0,85,0.00,,,0.00,Wunderground v.1.15,2013-07-05 11:23:00,
2013-07-05 07:26:00,76.0,71.2,30.18,SSW,203,1.0,4.0,85,0.00,,,0.00,Wunderground v.1.15,2013-07-05 11:26:00,
2013-07-05 07:27:00,76.0,71.2,30.18,WSW,245,3.0,4.0,85,0.00,,,0.00,Wunderground v.1.15,2013-07-05 11:27:00,
2013-07-05 07:31:00,76.2,71.0,30.18,SW,219,1.0,7.0,84,0.00,,,0.00,Wunderground v.1.15,2013-07-05 11:31:00,
2013-07-05 07:32:00,76.2,71.0,30.18,NNE,32,4.0,7.0,84,0.00,,,0.00,Wunderground v.1.15,2013-07-05 11:32:00,
2013-07-05 07:33:00,76.3,71.1,30.18,WNW,292,3.0,7.0,84,0.00,,,0.00,Wunderground v.1.15,2013-07-05 11:33:00,
2013-07-05 07:36:00,76.5,71.3,30.18,South,179,7.0,7.0,84,0.00,,,0.00,Wunderground v.1.15,2013-07-05 11:36:00,
2013-07-05 07:38:00,76.6,71.4,30.18,WSW,253,1.0,9.0,84,0.00,,,0.00,Wunderground v.1.15,2013-07-05 11:38:00,
2013-07-05 07:41:00,76.7,71.5,30.18,SW,226,4.0,9.0,84,0.00,,,0.00,Wunderground v.1.15,2013-07-05 11:41:00,
2013-07-05 07:43:00,76.8,71.6,30.18,WNW,286,6.0,9.0,84,0.00,,,0.00,Wunderground v.1.15,2013-07-05 11:43:00,
2013-07-05 07:44:00,76.8,71.6,30.18,SSW,197,2.0,5.0,84,0.00,,,0.00,Wunderground v.1.15,2013-07-05 11:44:00,
2013-07-05 07:47:00,77.0,71.8,30.18,West,264,6.0,7.0,84,0.00,,,0.00,Wunderground v.1.15,2013-07-05 11:47:00,
2013-07-05 07:48:00,77.0,71.8,30.18,SW,233,6.0,7.0,84,0.00,,,0.00,Wunderground v.1.15,2013-07-05 11:48:00,
2013-07-05 07:49:00,77.1,71.5,30.18,West,273,2.0,7.0,83,0.00,,,0.00,Wunderground v.1.15,2013-07-05 11:49:00,
2013-07-05 07:52:00,77.2,71.6,30.18,WNW,290,5.0,10.0,83,0.00,,,0.00,Wunderground v.1.15,2013-07-05 11:52:00,
2013-07-05 07:53:00,77.2,71.6,30.17,SE,138,2.0,10.0,83,0.00,,,0.00,Wunderground v.1.15,2013-07-05 11:53:00,
2013-07-05 07:55:00,77.3,71.7,30.17,SSW,192,2.0,5.0,83,0.00,,,0.00,Wunderground v.1.15,2013-07-05 11:55:00,
2013-07-05 07:57:00,77.5,71.9,30.18,NW,314,5.0,5.0,83,0.00,,,0.00,Wunderground v.1.15,2013-07-05 11:57:00,
2013-07-05 07:58:00,77.5,71.9,30.18,West,274,3.0,5.0,83,0.00,,,0.00,Wunderground v.1.15,2013-07-05 11:58:00,
2013-07-05 07:59:00,77.6,72.0,30.18,WSW,249,3.0,5.0,83,0.00,,,0.00,Wunderground v.1.15,2013-07-05 11:59:00,
2013-07-05 08:01:00,77.6,72.0,30.18,WSW,249,3.0,5.0,83,0.00,,,0.00,Wunderground v.1.15,2013-07-05 12:01:00,
2013-07-05 08:03:00,77.8,72.2,30.18,West,274,0.0,5.0,83,0.00,,,0.00,Wunderground v.1.15,2013-07-05 12:03:00,
2013-07-05 08:04:00,77.9,72.0,30.18,WNW,294,3.0,7.0,82,0.00,,,0.00,Wunderground v.1.15,2013-07-05 12:04:00,
2013-07-05 08:06:00,78.0,72.1,30.18,West,264,1.0,7.0,82,0.00,,,0.00,Wunderground v.1.15,2013-07-05 12:06:00,
2013-07-05 08:08:00,78.1,72.2,30.18,SW,235,9.0,9.0,82,0.00,,,0.00,Wunderground v.1.15,2013-07-05 12:08:00,
2013-07-05 08:09:00,78.1,72.2,30.18,WNW,284,3.0,9.0,82,0.00,,,0.00,Wunderground v.1.15,2013-07-05 12:09:00,
2013-07-05 08:10:00,78.1,72.2,30.18,WNW,284,2.0,9.0,82,0.00,,,0.00,Wunderground v.1.15,2013-07-05 12:10:00,
2013-07-05 08:11:00,78.1,72.2,30.18,SW,227,1.0,9.0,82,0.00,,,0.00,Wunderground v.1.15,2013-07-05 12:11:00,
2013-07-05 08:14:00,78.2,72.3,30.18,SW,227,3.0,6.0,82,0.00,,,0.00,Wunderground v.1.15,2013-07-05 12:14:00,
2013-07-05 08:18:00,78.3,72.3,30.18,WNW,286,3.0,6.0,82,0.00,,,0.00,Wunderground v.1.15,2013-07-05 12:18:00,
2013-07-05 08:19:00,78.4,72.4,30.18,WNW,293,2.0,6.0,82,0.00,,,0.00,Wunderground v.1.15,2013-07-05 12:19:00,
2013-07-05 08:20:00,78.5,72.5,30.18,WNW,293,0.0,6.0,82,0.00,,,0.00,Wunderground v.1.15,2013-07-05 12:20:00,
2013-07-05 08:25:00,78.8,72.5,30.18,NW,311,3.0,5.0,81,0.00,,,0.00,Wunderground v.1.15,2013-07-05 12:25:00,
2013-07-05 08:30:00,78.9,72.6,30.18,NW,309,5.0,6.0,81,0.00,,,0.00,Wunderground v.1.15,2013-07-05 12:30:00,
2013-07-05 08:31:00,78.9,72.6,30.17,WSW,238,1.0,7.0,81,0.00,,,0.00,Wunderground v.1.15,2013-07-05 12:31:00,
2013-07-05 08:36:00,79.2,72.9,30.18,NW,309,5.0,5.0,81,0.00,,,0.00,Wunderground v.1.15,2013-07-05 12:36:00,
2013-07-05 08:37:00,79.2,72.9,30.18,WSW,240,4.0,9.0,81,0.00,,,0.00,Wunderground v.1.15,2013-07-05 12:37:00,
2013-07-05 08:41:00,79.2,72.5,30.18,WSW,242,8.0,9.0,80,0.00,,,0.00,Wunderground v.1.15,2013-07-05 12:41:00,
2013-07-05 08:42:00,79.2,72.5,30.17,West,281,2.0,9.0,80,0.00,,,0.00,Wunderground v.1.15,2013-07-05 12:42:00,
2013-07-05 08:47:00,79.4,72.7,30.17,WNW,288,4.0,7.0,80,0.00,,,0.00,Wunderground v.1.15,2013-07-05 12:47:00,
2013-07-05 08:52:00,79.5,72.8,30.17,WNW,296,2.0,10.0,80,0.00,,,0.00,Wunderground v.1.15,2013-07-05 12:52:00,
2013-07-05 08:53:00,79.6,72.9,30.17,WNW,298,2.0,10.0,80,0.00,,,0.00,Wunderground v.1.15,2013-07-05 12:53:00,
2013-07-05 08:57:00,79.9,73.2,30.17,WSW,238,3.0,5.0,80,0.00,,,0.00,Wunderground v.1.15,2013-07-05 12:57:00,
2013-07-05 08:58:00,79.9,73.2,30.17,SSW,197,4.0,5.0,80,0.00,,,0.00,Wunderground v.1.15,2013-07-05 12:58:00,
2013-07-05 09:03:00,80.5,73.4,30.17,West,271,2.0,5.0,79,0.00,,,0.00,Wunderground v.1.15,2013-07-05 13:03:00,
2013-07-05 09:08:00,80.3,73.6,30.17,SSW,205,4.0,7.0,80,0.00,,,0.00,Wunderground v.1.15,2013-07-05 13:08:00,
2013-07-05 09:09:00,80.4,73.7,30.17,SW,229,4.0,7.0,80,0.00,,,0.00,Wunderground v.1.15,2013-07-05 13:09:00,
2013-07-05 09:10:00,80.4,73.3,30.17,WSW,252,4.0,7.0,79,0.00,,,0.00,Wunderground v.1.15,2013-07-05 13:10:00,
2013-07-05 09:14:00,80.6,73.5,30.17,SW,217,5.0,5.0,79,0.00,,,0.00,Wunderground v.1.15,2013-07-05 13:14:00,
2013-07-05 09:16:00,80.8,73.7,30.17,South,190,4.0,6.0,79,0.00,,,0.00,Wunderground v.1.15,2013-07-05 13:16:00,
2013-07-05 09:20:00,81.0,73.5,30.17,West,264,4.0,7.0,78,0.00,,,0.00,Wunderground v.1.15,2013-07-05 13:20:00,
2013-07-05 09:21:00,81.0,73.5,30.17,SW,216,4.0,7.0,78,0.00,,,0.00,Wunderground v.1.15,2013-07-05 13:21:00,
2013-07-05 09:25:00,81.1,73.6,30.17,SSW,209,7.0,7.0,78,0.00,,,0.00,Wunderground v.1.15,2013-07-05 13:25:00,
2013-07-05 09:26:00,81.2,73.3,30.17,SSW,202,5.0,9.0,77,0.00,,,0.00,Wunderground v.1.15,2013-07-05 13:26:00,
2013-07-05 09:27:00,81.2,73.3,30.17,SW,215,1.0,9.0,77,0.00,,,0.00,Wunderground v.1.15,2013-07-05 13:27:00,
2013-07-05 09:31:00,81.6,73.7,30.16,West,259,7.0,9.0,77,0.00,,,0.00,Wunderground v.1.15,2013-07-05 13:31:00,
2013-07-05 09:33:00,81.8,73.5,30.17,WSW,244,5.0,5.0,76,0.00,,,0.00,Wunderground v.1.15,2013-07-05 13:33:00,
2013-07-05 09:34:00,81.8,73.5,30.17,SSE,161,1.0,5.0,76,0.00,,,0.00,Wunderground v.1.15,2013-07-05 13:34:00,
2013-07-05 09:36:00,82.2,73.9,30.17,WSW,246,1.0,5.0,76,0.00,,,0.00,Wunderground v.1.15,2013-07-05 13:36:00,
2013-07-05 09:37:00,82.2,73.5,30.17,SSW,212,4.0,7.0,75,0.00,,,0.00,Wunderground v.1.15,2013-07-05 13:37:00,
2013-07-05 09:38:00,82.1,73.4,30.16,SW,234,3.0,7.0,75,0.00,,,0.00,Wunderground v.1.15,2013-07-05 13:38:00,
2013-07-05 09:39:00,82.1,73.4,30.16,NW,310,2.0,7.0,75,0.00,,,0.00,Wunderground v.1.15,2013-07-05 13:39:00,
2013-07-05 09:42:00,82.2,73.9,30.16,West,263,1.0,7.0,76,0.00,,,0.00,Wunderground v.1.15,2013-07-05 13:42:00,
2013-07-05 09:43:00,82.2,73.9,30.16,WNW,302,2.0,7.0,76,0.00,,,0.00,Wunderground v.1.15,2013-07-05 13:43:00,
2013-07-05 09:44:00,82.3,74.0,30.16,NW,325,2.0,7.0,76,0.00,,,0.00,Wunderground v.1.15,2013-07-05 13:44:00,
2013-07-05 09:47:00,82.7,74.4,30.16,WNW,290,0.0,7.0,76,0.00,,,0.00,Wunderground v.1.15,2013-07-05 13:47:00,
2013-07-05 09:48:00,82.8,74.5,30.16,SSW,202,2.0,7.0,76,0.00,,,0.00,Wunderground v.1.15,2013-07-05 13:48:00,
2013-07-05 09:49:00,82.9,74.6,30.16,SW,225,1.0,7.0,76,0.00,,,0.00,Wunderground v.1.15,2013-07-05 13:49:00,
2013-07-05 09:51:00,83.0,74.3,30.16,WNW,286,2.0,7.0,75,0.00,,,0.00,Wunderground v.1.15,2013-07-05 13:51:00,
2013-07-05 09:53:00,83.2,74.4,30.16,SSW,198,1.0,7.0,75,0.00,,,0.00,Wunderground v.1.15,2013-07-05 13:53:00,
2013-07-05 09:54:00,83.3,74.1,30.16,SW,229,6.0,7.0,74,0.00,,,0.00,Wunderground v.1.15,2013-07-05 13:54:00,
2013-07-05 09:56:00,83.5,74.3,30.16,WSW,246,5.0,7.0,74,0.00,,,0.00,Wunderground v.1.15,2013-07-05 13:56:00,
2013-07-05 09:57:00,83.5,74.3,30.16,SW,234,7.0,7.0,74,0.00,,,0.00,Wunderground v.1.15,2013-07-05 13:57:00,
2013-07-05 09:59:00,83.5,73.9,30.16,SSW,199,4.0,7.0,73,0.00,,,0.00,Wunderground v.1.15,2013-07-05 13:59:00,
2013-07-05 10:02:00,83.4,73.8,30.16,SSW,202,5.0,7.0,73,0.00,,,0.00,Wunderground v.1.15,2013-07-05 14:02:00,
2013-07-05 10:04:00,83.4,74.2,30.16,South,184,4.0,6.0,74,0.00,,,0.00,Wunderground v.1.15,2013-07-05 14:04:00,
2013-07-05 10:05:00,83.4,74.2,30.16,SW,216,4.0,6.0,74,0.00,,,0.00,Wunderground v.1.15,2013-07-05 14:05:00,
2013-07-05 10:07:00,83.3,74.9,30.16,WNW,290,3.0,6.0,76,0.00,,,0.00,Wunderground v.1.15,2013-07-05 14:07:00,
2013-07-05 10:09:00,83.2,74.0,30.16,SW,214,2.0,11.0,74,0.00,,,0.00,Wunderground v.1.15,2013-07-05 14:09:00,
2013-07-05 10:10:00,83.2,74.4,30.16,South,182,5.0,11.0,75,0.00,,,0.00,Wunderground v.1.15,2013-07-05 14:10:00,
2013-07-05 10:13:00,83.5,74.3,30.16,SW,231,2.0,3.0,74,0.00,,,0.00,Wunderground v.1.15,2013-07-05 14:13:00,
2013-07-05 10:14:00,83.7,74.5,30.16,NW,325,1.0,3.0,74,0.00,,,0.00,Wunderground v.1.15,2013-07-05 14:14:00,
2013-07-05 10:15:00,83.8,75.8,30.16,NW,304,3.0,3.0,77,0.00,,,0.00,Wunderground v.1.15,2013-07-05 14:15:00,
2013-07-05 10:16:00,84.0,75.2,30.16,NNW,338,1.0,4.0,75,0.00,,,0.00,Wunderground v.1.15,2013-07-05 14:16:00,
2013-07-05 10:19:00,84.4,74.8,30.16,NW,309,2.0,5.0,73,0.00,,,0.00,Wunderground v.1.15,2013-07-05 14:19:00,
2013-07-05 10:20:00,84.5,74.5,30.16,WSW,240,4.0,5.0,72,0.00,,,0.00,Wunderground v.1.15,2013-07-05 14:20:00,
2013-07-05 10:21:00,84.5,74.5,30.16,WSW,252,4.0,7.0,72,0.00,,,0.00,Wunderground v.1.15,2013-07-05 14:21:00,
2013-07-05 10:25:00,84.2,74.2,30.16,WSW,237,4.0,6.0,72,0.00,,,0.00,Wunderground v.1.15,2013-07-05 14:25:00,
2013-07-05 10:26:00,84.0,74.0,30.16,WNW,284,3.0,6.0,72,0.00,,,0.00,Wunderground v.1.15,2013-07-05 14:26:00,
2013-07-05 10:30:00,84.1,74.5,30.16,SSW,206,2.0,6.0,73,0.00,,,0.00,Wunderground v.1.15,2013-07-05 14:30:00,
2013-07-05 10:31:00,84.3,74.7,30.16,SSW,211,4.0,7.0,73,0.00,,,0.00,Wunderground v.1.15,2013-07-05 14:31:00,
2013-07-05 10:32:00,84.3,74.7,30.16,WNW,296,8.0,9.0,73,0.00,,,0.00,Wunderground v.1.15,2013-07-05 14:32:00,
2013-07-05 10:35:00,84.1,74.5,30.16,West,259,1.0,6.0,73,0.00,,,0.00,Wunderground v.1.15,2013-07-05 14:35:00,
2013-07-05 10:36:00,84.2,74.6,30.16,SW,215,3.0,6.0,73,0.00,,,0.00,Wunderground v.1.15,2013-07-05 14:36:00,
2013-07-05 10:37:00,84.2,74.6,30.16,SSW,201,7.0,7.0,73,0.00,,,0.00,Wunderground v.1.15,2013-07-05 14:37:00,
2013-07-05 10:40:00,84.2,74.2,30.16,SW,225,1.0,8.0,72,0.00,,,0.00,Wunderground v.1.15,2013-07-05 14:40:00,
2013-07-05 10:41:00,84.3,74.7,30.16,NW,309,3.0,8.0,73,0.00,,,0.00,Wunderground v.1.15,2013-07-05 14:41:00,
2013-07-05 10:43:00,84.3,74.3,30.16,West,262,2.0,9.0,72,0.00,,,0.00,Wunderground v.1.15,2013-07-05 14:43:00,
2013-07-05 10:45:00,84.4,74.8,30.16,WSW,244,4.0,7.0,73,0.00,,,0.00,Wunderground v.1.15,2013-07-05 14:45:00,
2013-07-05 10:47:00,84.4,74.0,30.16,NW,318,6.0,7.0,71,0.00,,,0.00,Wunderground v.1.15,2013-07-05 14:47:00,
2013-07-05 10:49:00,84.3,74.3,30.15,NW,325,2.0,7.0,72,0.00,,,0.00,Wunderground v.1.15,2013-07-05 14:49:00,
2013-07-05 10:51:00,84.6,74.6,30.15,SW,236,4.0,7.0,72,0.00,,,0.00,Wunderground v.1.15,2013-07-05 14:51:00,
2013-07-05 10:54:00,84.7,74.7,30.15,West,271,3.0,4.0,72,0.00,,,0.00,Wunderground v.1.15,2013-07-05 14:54:00,
2013-07-05 10:55:00,84.8,74.8,30.15,SSW,205,2.0,4.0,72,0.00,,,0.00,Wunderground v.1.15,2013-07-05 14:55:00,
2013-07-05 10:57:00,85.0,75.0,30.15,South,183,3.0,5.0,72,0.00,,,0.00,Wunderground v.1.15,2013-07-05 14:57:00,
2013-07-05 10:59:00,85.2,74.3,30.15,SW,230,4.0,5.0,70,0.00,,,0.00,Wunderground v.1.15,2013-07-05 14:59:00,
2013-07-05 11:00:00,85.3,74.8,30.15,WSW,254,4.0,7.0,71,0.00,,,0.00,Wunderground v.1.15,2013-07-05 15:00:00,
2013-07-05 11:02:00,85.0,74.1,30.15,NW,308,3.0,8.0,70,0.00,,,0.00,Wunderground v.1.15,2013-07-05 15:02:00,
2013-07-05 11:05:00,85.0,74.5,30.15,West,271,2.0,5.0,71,0.00,,,0.00,Wunderground v.1.15,2013-07-05 15:05:00,
2013-07-05 11:08:00,85.3,74.8,30.15,NW,320,1.0,5.0,71,0.00,,,0.00,Wunderground v.1.15,2013-07-05 15:08:00,
2013-07-05 11:10:00,85.7,74.8,30.15,WNW,285,2.0,5.0,70,0.00,,,0.00,Wunderground v.1.15,2013-07-05 15:10:00,
2013-07-05 11:11:00,85.8,74.9,30.15,WNW,285,3.0,5.0,70,0.00,,,0.00,Wunderground v.1.15,2013-07-05 15:11:00,
2013-07-05 11:14:00,85.8,74.9,30.15,South,181,4.0,4.0,70,0.00,,,0.00,Wunderground v.1.15,2013-07-05 15:14:00,
2013-07-05 11:15:00,85.6,73.8,30.15,SSW,196,3.0,8.0,68,0.00,,,0.00,Wunderground v.1.15,2013-07-05 15:15:00,
2013-07-05 11:16:00,85.5,73.7,30.15,South,188,6.0,9.0,68,0.00,,,0.00,Wunderground v.1.15,2013-07-05 15:16:00,
2013-07-05 11:17:00,85.4,74.1,30.15,WSW,242,4.0,9.0,69,0.00,,,0.00,Wunderground v.1.15,2013-07-05 15:17:00,
2013-07-05 11:19:00,85.3,74.4,30.14,South,178,5.0,9.0,70,0.00,,,0.00,Wunderground v.1.15,2013-07-05 15:19:00,
2013-07-05 11:21:00,85.4,74.1,30.15,SSE,160,2.0,9.0,69,0.00,,,0.00,Wunderground v.1.15,2013-07-05 15:21:00,
2013-07-05 11:22:00,85.4,74.1,30.15,SSE,163,2.0,9.0,69,0.00,,,0.00,Wunderground v.1.15,2013-07-05 15:22:00,
2013-07-05 11:25:00,85.8,74.4,30.14,SW,218,3.0,5.0,69,0.00,,,0.00,Wunderground v.1.15,2013-07-05 15:25:00,
2013-07-05 11:26:00,86.9,75.1,30.14,SSW,197,0.0,9.0,68,0.00,,,0.00,Wunderground v.1.15,2013-07-05 15:26:00,
2013-07-05 11:27:00,85.8,74.0,30.14,SW,221,2.0,5.0,68,0.00,,,0.00,Wunderground v.1.15,2013-07-05 15:27:00,
2013-07-05 11:28:00,85.9,74.1,30.14,South,190,2.0,6.0,68,0.00,,,0.00,Wunderground v.1.15,2013-07-05 15:28:00,
2013-07-05 11:29:00,87.2,74.5,30.14,SW,221,1.0,9.0,66,0.00,,,0.00,Wunderground v.1.15,2013-07-05 15:29:00,
2013-07-05 11:30:00,85.9,74.5,30.14,SW,232,2.0,9.0,69,0.00,,,0.00,Wunderground v.1.15,2013-07-05 15:30:00,
2013-07-05 11:31:00,87.6,75.3,30.14,WSW,250,7.0,7.0,67,0.00,,,0.00,Wunderground v.1.15,2013-07-05 15:31:00,
2013-07-05 11:32:00,86.1,74.3,30.14,SSW,204,3.0,9.0,68,0.00,,,0.00,Wunderground v.1.15,2013-07-05 15:32:00,
2013-07-05 11:33:00,86.1,73.9,30.14,SSW,204,1.0,9.0,67,0.00,,,0.00,Wunderground v.1.15,2013-07-05 15:33:00,
2013-07-05 11:35:00,86.2,74.4,30.14,South,186,3.0,5.0,68,0.00,,,0.00,Wunderground v.1.15,2013-07-05 15:35:00,
2013-07-05 11:37:00,86.4,74.6,30.14,South,191,2.0,5.0,68,0.00,,,0.00,Wunderground v.1.15,2013-07-05 15:37:00,
2013-07-05 11:38:00,86.3,74.0,30.14,SW,217,0.0,5.0,67,0.00,,,0.00,Wunderground v.1.15,2013-07-05 15:38:00,
2013-07-05 11:40:00,86.4,74.6,30.14,WSW,240,0.0,5.0,68,0.00,,,0.00,Wunderground v.1.15,2013-07-05 15:40:00,
2013-07-05 11:42:00,86.5,74.7,30.14,SW,228,3.0,5.0,68,0.00,,,0.00,Wunderground v.1.15,2013-07-05 15:42:00,
2013-07-05 11:43:00,86.6,74.8,30.14,South,173,1.0,5.0,68,0.00,,,0.00,Wunderground v.1.15,2013-07-05 15:43:00,
2013-07-05 11:46:00,87.0,74.7,30.14,WSW,242,5.0,5.0,67,0.00,,,0.00,Wunderground v.1.15,2013-07-05 15:46:00,
2013-07-05 11:47:00,86.8,74.1,30.14,WSW,250,2.0,9.0,66,0.00,,,0.00,Wunderground v.1.15,2013-07-05 15:47:00,
2013-07-05 11:48:00,86.8,74.1,30.14,SSW,197,1.0,9.0,66,0.00,,,0.00,Wunderground v.1.15,2013-07-05 15:48:00,
2013-07-05 11:51:00,87.0,74.7,30.14,SSW,197,2.0,9.0,67,0.00,,,0.00,Wunderground v.1.15,2013-07-05 15:51:00,
2013-07-05 11:52:00,87.2,74.5,30.14,SW,221,1.0,9.0,66,0.00,,,0.00,Wunderground v.1.15,2013-07-05 15:52:00,
2013-07-05 11:53:00,87.4,75.1,30.14,WSW,252,2.0,2.0,67,0.00,,,0.00,Wunderground v.1.15,2013-07-05 15:53:00,
2013-07-05 11:56:00,87.5,74.7,30.14,WSW,251,1.0,8.0,66,0.00,,,0.00,Wunderground v.1.15,2013-07-05 15:56:00,
2013-07-05 11:57:00,87.4,73.7,30.14,WSW,251,2.0,8.0,64,0.00,,,0.00,Wunderground v.1.15,2013-07-05 15:57:00,
2013-07-05 11:58:00,87.4,74.2,30.14,WSW,248,1.0,8.0,65,0.00,,,0.00,Wunderground v.1.15,2013-07-05 15:58:00,
2013-07-05 12:01:00,87.5,74.7,30.14,ESE,123,2.0,8.0,66,0.00,,,0.00,Wunderground v.1.15,2013-07-05 16:01:00,
2013-07-05 12:02:00,87.5,74.3,30.14,SW,226,3.0,8.0,65,0.00,,,0.00,Wunderground v.1.15,2013-07-05 16:02:00,
2013-07-05 12:03:00,87.6,74.4,30.14,SSE,163,5.0,8.0,65,0.00,,,0.00,Wunderground v.1.15,2013-07-05 16:03:00,
2013-07-05 12:04:00,87.7,74.0,30.14,South,175,2.0,4.0,64,0.00,,,0.00,Wunderground v.1.15,2013-07-05 16:04:00,
2013-07-05 12:06:00,87.8,73.6,30.14,WSW,252,4.0,7.0,63,0.00,,,0.00,Wunderground v.1.15,2013-07-05 16:06:00,
2013-07-05 12:07:00,87.8,74.1,30.14,SW,221,1.0,7.0,64,0.00,,,0.00,Wunderground v.1.15,2013-07-05 16:07:00,
2013-07-05 12:08:00,87.8,73.6,30.14,WSW,237,2.0,7.0,63,0.00,,,0.00,Wunderground v.1.15,2013-07-05 16:08:00,
2013-07-05 12:09:00,87.8,73.6,30.14,West,279,2.0,7.0,63,0.00,,,0.00,Wunderground v.1.15,2013-07-05 16:09:00,
2013-07-05 12:11:00,87.8,73.6,30.14,SSW,213,9.0,9.0,63,0.00,,,0.00,Wunderground v.1.15,2013-07-05 16:11:00,
2013-07-05 12:12:00,87.7,73.5,30.14,SW,229,7.0,10.0,63,0.00,,,0.00,Wunderground v.1.15,2013-07-05 16:12:00,
2013-07-05 12:13:00,87.7,73.5,30.14,West,259,4.0,10.0,63,0.00,,,0.00,Wunderground v.1.15,2013-07-05 16:13:00,
2013-07-05 12:14:00,87.5,73.3,30.14,WSW,258,7.0,11.0,63,0.00,,,0.00,Wunderground v.1.15,2013-07-05 16:14:00,
2013-07-05 12:16:00,87.4,72.8,30.14,West,259,8.0,12.0,62,0.00,,,0.00,Wunderground v.1.15,2013-07-05 16:16:00,
2013-07-05 12:17:00,87.3,72.7,30.14,West,263,1.0,12.0,62,0.00,,,0.00,Wunderground v.1.15,2013-07-05 16:17:00,
2013-07-05 12:18:00,87.3,73.2,30.14,SW,229,6.0,12.0,63,0.00,,,0.00,Wunderground v.1.15,2013-07-05 16:18:00,
2013-07-05 12:19:00,87.3,72.7,30.14,South,182,2.0,12.0,62,0.00,,,0.00,Wunderground v.1.15,2013-07-05 16:19:00,
2013-07-05 12:21:00,87.5,73.3,30.14,WSW,242,3.0,12.0,63,0.00,,,0.00,Wunderground v.1.15,2013-07-05 16:21:00,
2013-07-05 12:22:00,87.5,73.3,30.14,WSW,255,4.0,12.0,63,0.00,,,0.00,Wunderground v.1.15,2013-07-05 16:22:00,
2013-07-05 12:23:00,87.5,72.9,30.14,ESE,113,0.0,4.0,62,0.00,,,0.00,Wunderground v.1.15,2013-07-05 16:23:00,
2013-07-05 12:24:00,87.5,73.3,30.14,West,277,0.0,6.0,63,0.00,,,0.00,Wunderground v.1.15,2013-07-05 16:24:00,
2013-07-05 12:27:00,87.9,73.7,30.13,SW,225,4.0,6.0,63,0.00,,,0.00,Wunderground v.1.15,2013-07-05 16:27:00,
2013-07-05 12:28:00,88.1,74.8,30.14,WSW,245,7.0,9.0,65,0.00,,,0.00,Wunderground v.1.15,2013-07-05 16:28:00,
2013-07-05 12:29:00,88.2,74.5,30.14,WNW,302,3.0,9.0,64,0.00,,,0.00,Wunderground v.1.15,2013-07-05 16:29:00,
2013-07-05 12:32:00,88.1,74.4,30.13,SW,234,2.0,9.0,64,0.00,,,0.00,Wunderground v.1.15,2013-07-05 16:32:00,
2013-07-05 12:33:00,88.1,74.4,30.13,SW,223,3.0,9.0,64,0.00,,,0.00,Wunderground v.1.15,2013-07-05 16:33:00,
2013-07-05 12:34:00,88.0,74.3,30.13,SW,216,3.0,5.0,64,0.00,,,0.00,Wunderground v.1.15,2013-07-05 16:34:00,
2013-07-05 12:37:00,88.1,74.8,30.13,West,271,2.0,6.0,65,0.00,,,0.00,Wunderground v.1.15,2013-07-05 16:37:00,
2013-07-05 12:38:00,88.1,74.4,30.13,WSW,245,1.0,6.0,64,0.00,,,0.00,Wunderground v.1.15,2013-07-05 16:38:00,
2013-07-05 12:39:00,88.0,74.3,30.13,WSW,245,1.0,6.0,64,0.00,,,0.00,Wunderground v.1.15,2013-07-05 16:39:00,
2013-07-05 12:40:00,88.0,74.3,30.13,WSW,245,1.0,6.0,64,0.00,,,0.00,Wunderground v.1.15,2013-07-05 16:40:00,
2013-07-05 12:42:00,88.4,75.6,30.13,WSW,244,3.0,6.0,66,0.00,,,0.00,Wunderground v.1.15,2013-07-05 16:42:00,
2013-07-05 12:43:00,88.6,75.3,30.13,SW,217,6.0,6.0,65,0.00,,,0.00,Wunderground v.1.15,2013-07-05 16:43:00,
2013-07-05 12:44:00,88.5,74.8,30.13,West,270,2.0,6.0,64,0.00,,,0.00,Wunderground v.1.15,2013-07-05 16:44:00,
2013-07-05 12:45:00,88.4,74.7,30.13,South,187,3.0,8.0,64,0.00,,,0.00,Wunderground v.1.15,2013-07-05 16:45:00,
2013-07-05 12:47:00,88.2,74.5,30.13,SSW,200,2.0,8.0,64,0.00,,,0.00,Wunderground v.1.15,2013-07-05 16:47:00,
2013-07-05 12:48:00,88.2,74.5,30.13,SW,234,5.0,8.0,64,0.00,,,0.00,Wunderground v.1.15,2013-07-05 16:48:00,
2013-07-05 12:49:00,88.2,74.5,30.13,SSW,213,4.0,8.0,64,0.00,,,0.00,Wunderground v.1.15,2013-07-05 16:49:00,
2013-07-05 12:50:00,88.2,74.5,30.13,South,174,6.0,8.0,64,0.00,,,0.00,Wunderground v.1.15,2013-07-05 16:50:00,
2013-07-05 12:52:00,88.2,74.0,30.13,SW,229,5.0,10.0,63,0.00,,,0.00,Wunderground v.1.15,2013-07-05 16:52:00,
2013-07-05 12:53:00,88.2,74.0,30.12,South,176,1.0,4.0,63,0.00,,,0.00,Wunderground v.1.15,2013-07-05 16:53:00,
2013-07-05 12:55:00,88.4,75.1,30.12,West,264,2.0,4.0,65,0.00,,,0.00,Wunderground v.1.15,2013-07-05 16:55:00,
2013-07-05 12:58:00,88.9,74.7,30.12,SSE,163,5.0,6.0,63,0.00,,,0.00,Wunderground v.1.15,2013-07-05 16:58:00,
2013-07-05 13:00:00,88.9,73.2,30.12,SSE,158,3.0,8.0,60,0.00,,,0.00,Wunderground v.1.15,2013-07-05 17:00:00,
2013-07-05 13:01:00,88.9,73.7,30.12,SW,227,2.0,8.0,61,0.00,,,0.00,Wunderground v.1.15,2013-07-05 17:01:00,
2013-07-05 13:03:00,88.8,72.6,30.12,South,174,2.0,8.0,59,0.00,,,0.00,Wunderground v.1.15,2013-07-05 17:03:00,
2013-07-05 13:05:00,88.9,73.7,30.12,SSW,198,5.0,6.0,61,0.00,,,0.00,Wunderground v.1.15,2013-07-05 17:05:00,
2013-07-05 13:06:00,88.9,73.2,30.12,SW,223,3.0,6.0,60,0.00,,,0.00,Wunderground v.1.15,2013-07-05 17:06:00,
2013-07-05 13:08:00,88.8,73.6,30.12,South,186,5.0,13.0,61,0.00,,,0.00,Wunderground v.1.15,2013-07-05 17:08:00,
2013-07-05 13:10:00,88.6,73.4,30.12,SW,229,3.0,13.0,61,0.00,,,0.00,Wunderground v.1.15,2013-07-05 17:10:00,
2013-07-05 13:11:00,88.6,73.9,30.12,SSW,195,2.0,13.0,62,0.00,,,0.00,Wunderground v.1.15,2013-07-05 17:11:00,
2013-07-05 13:13:00,89.0,73.8,30.12,SW,214,2.0,4.0,61,0.00,,,0.00,Wunderground v.1.15,2013-07-05 17:13:00,
2013-07-05 13:15:00,89.2,73.0,30.12,SSW,206,3.0,9.0,59,0.00,,,0.00,Wunderground v.1.15,2013-07-05 17:15:00,
2013-07-05 13:16:00,89.2,74.0,30.12,SW,215,3.0,9.0,61,0.00,,,0.00,Wunderground v.1.15,2013-07-05 17:16:00,
2013-07-05 13:18:00,89.2,73.5,30.12,South,170,0.0,13.0,60,0.00,,,0.00,Wunderground v.1.15,2013-07-05 17:18:00,
2013-07-05 13:19:00,89.2,73.5,30.12,WSW,251,3.0,13.0,60,0.00,,,0.00,Wunderground v.1.15,2013-07-05 17:19:00,
2013-07-05 13:20:00,89.2,74.0,30.12,SW,220,4.0,13.0,61,0.00,,,0.00,Wunderground v.1.15,2013-07-05 17:20:00,
2013-07-05 13:21:00,89.2,74.0,30.12,SW,232,4.0,13.0,61,0.00,,,0.00,Wunderground v.1.15,2013-07-05 17:21:00,
2013-07-05 13:24:00,89.0,73.8,30.12,SSW,210,4.0,8.0,61,0.00,,,0.00,Wunderground v.1.15,2013-07-05 17:24:00,
2013-07-05 13:26:00,88.9,73.7,30.12,SE,125,2.0,11.0,61,0.00,,,0.00,Wunderground v.1.15,2013-07-05 17:26:00,
2013-07-05 13:27:00,89.0,73.3,30.12,South,186,4.0,11.0,60,0.00,,,0.00,Wunderground v.1.15,2013-07-05 17:27:00,
2013-07-05 13:29:00,88.9,73.2,30.11,SSW,210,3.0,11.0,60,0.00,,,0.00,Wunderground v.1.15,2013-07-05 17:29:00,
2013-07-05 13:31:00,89.0,73.8,30.12,South,181,4.0,11.0,61,0.00,,,0.00,Wunderground v.1.15,2013-07-05 17:31:00,
2013-07-05 13:32:00,89.0,73.3,30.11,South,181,4.0,11.0,60,0.00,,,0.00,Wunderground v.1.15,2013-07-05 17:32:00,
2013-07-05 13:34:00,89.1,73.9,30.11,WSW,248,5.0,6.0,61,0.00,,,0.00,Wunderground v.1.15,2013-07-05 17:34:00,
2013-07-05 13:35:00,89.1,73.4,30.12,SSW,202,7.0,7.0,60,0.00,,,0.00,Wunderground v.1.15,2013-07-05 17:35:00,
2013-07-05 13:36:00,89.0,73.3,30.12,SSW,192,5.0,8.0,60,0.00,,,0.00,Wunderground v.1.15,2013-07-05 17:36:00,
2013-07-05 13:37:00,88.9,73.2,30.11,SW,227,5.0,8.0,60,0.00,,,0.00,Wunderground v.1.15,2013-07-05 17:37:00,
2013-07-05 13:39:00,88.5,73.3,30.11,SSW,196,6.0,8.0,61,0.00,,,0.00,Wunderground v.1.15,2013-07-05 17:39:00,
2013-07-05 13:40:00,88.3,73.6,30.11,SSE,157,1.0,8.0,62,0.00,,,0.00,Wunderground v.1.15,2013-07-05 17:40:00,
2013-07-05 13:41:00,88.3,73.6,30.11,South,171,4.0,8.0,62,0.00,,,0.00,Wunderground v.1.15,2013-07-05 17:41:00,
2013-07-05 13:42:00,88.4,74.2,30.12,South,188,2.0,8.0,63,0.00,,,0.00,Wunderground v.1.15,2013-07-05 17:42:00,
2013-07-05 13:44:00,88.8,74.1,30.12,SW,230,4.0,7.0,62,0.00,,,0.00,Wunderground v.1.15,2013-07-05 17:44:00,
2013-07-05 13:46:00,88.9,74.7,30.11,SSW,213,8.0,10.0,63,0.00,,,0.00,Wunderground v.1.15,2013-07-05 17:46:00,
2013-07-05 13:47:00,88.8,74.1,30.12,WSW,255,8.0,10.0,62,0.00,,,0.00,Wunderground v.1.15,2013-07-05 17:47:00,
2013-07-05 13:50:00,88.7,73.0,30.12,SW,219,3.0,10.0,60,0.00,,,0.00,Wunderground v.1.15,2013-07-05 17:50:00,
2013-07-05 13:51:00,88.7,74.0,30.11,WSW,254,2.0,10.0,62,0.00,,,0.00,Wunderground v.1.15,2013-07-05 17:51:00,
2013-07-05 13:52:00,88.7,73.5,30.11,SW,226,5.0,10.0,61,0.00,,,0.00,Wunderground v.1.15,2013-07-05 17:52:00,
2013-07-05 13:55:00,88.6,72.9,30.12,WSW,253,8.0,11.0,60,0.00,,,0.00,Wunderground v.1.15,2013-07-05 17:55:00,
2013-07-05 13:56:00,88.5,72.8,30.12,WSW,249,5.0,11.0,60,0.00,,,0.00,Wunderground v.1.15,2013-07-05 17:56:00,
2013-07-05 13:57:00,88.3,72.7,30.11,WSW,248,5.0,12.0,60,0.00,,,0.00,Wunderground v.1.15,2013-07-05 17:57:00,
2013-07-05 14:00:00,87.9,73.3,30.11,South,179,4.0,12.0,62,0.00,,,0.00,Wunderground v.1.15,2013-07-05 18:00:00,
2013-07-05 14:01:00,88.0,73.8,30.11,South,181,3.0,12.0,63,0.00,,,0.00,Wunderground v.1.15,2013-07-05 18:01:00,
2013-07-05 14:02:00,88.0,72.4,30.11,South,186,7.0,12.0,60,0.00,,,0.00,Wunderground v.1.15,2013-07-05 18:02:00,
2013-07-05 14:05:00,88.3,74.1,30.11,WSW,248,7.0,8.0,63,0.00,,,0.00,Wunderground v.1.15,2013-07-05 18:05:00,
2013-07-05 14:06:00,88.4,73.7,30.11,NNW,334,4.0,8.0,62,0.00,,,0.00,Wunderground v.1.15,2013-07-05 18:06:00,
2013-07-05 14:07:00,88.4,73.7,30.11,SSE,151,2.0,8.0,62,0.00,,,0.00,Wunderground v.1.15,2013-07-05 18:07:00,
2013-07-05 14:08:00,88.5,73.8,30.11,South,178,2.0,8.0,62,0.00,,,0.00,Wunderground v.1.15,2013-07-05 18:08:00,
2013-07-05 14:11:00,88.7,74.0,30.11,SW,236,3.0,8.0,62,0.00,,,0.00,Wunderground v.1.15,2013-07-05 18:11:00,
2013-07-05 14:12:00,88.6,74.4,30.11,WSW,257,1.0,8.0,63,0.00,,,0.00,Wunderground v.1.15,2013-07-05 18:12:00,
2013-07-05 14:13:00,88.5,74.3,30.11,NNW,340,4.0,8.0,63,0.00,,,0.00,Wunderground v.1.15,2013-07-05 18:13:00,
2013-07-05 14:16:00,88.1,73.9,30.11,SSW,210,1.0,8.0,63,0.00,,,0.00,Wunderground v.1.15,2013-07-05 18:16:00,
2013-07-05 14:17:00,88.1,73.9,30.11,SSW,210,0.0,8.0,63,0.00,,,0.00,Wunderground v.1.15,2013-07-05 18:17:00,
2013-07-05 14:18:00,88.3,74.6,30.11,WSW,242,4.0,8.0,64,0.00,,,0.00,Wunderground v.1.15,2013-07-05 18:18:00,
2013-07-05 14:22:00,88.7,73.5,30.11,SW,227,3.0,11.0,61,0.00,,,0.00,Wunderground v.1.15,2013-07-05 18:22:00,
2013-07-05 14:23:00,88.7,74.0,30.11,WSW,238,5.0,11.0,62,0.00,,,0.00,Wunderground v.1.15,2013-07-05 18:23:00,
2013-07-05 14:27:00,88.9,74.7,30.11,SSW,194,2.0,8.0,63,0.00,,,0.00,Wunderground v.1.15,2013-07-05 18:27:00,
2013-07-05 14:28:00,89.1,74.4,30.11,SW,215,7.0,8.0,62,0.00,,,0.00,Wunderground v.1.15,2013-07-05 18:28:00,
2013-07-05 14:32:00,89.4,75.1,30.11,SSW,192,4.0,10.0,63,0.00,,,0.00,Wunderground v.1.15,2013-07-05 18:32:00,
2013-07-05 14:33:00,89.4,74.7,30.11,WSW,238,3.0,10.0,62,0.00,,,0.00,Wunderground v.1.15,2013-07-05 18:33:00,
2013-07-05 14:37:00,89.3,73.6,30.11,SSW,205,5.0,16.0,60,0.00,,,0.00,Wunderground v.1.15,2013-07-05 18:37:00,
2013-07-05 14:38:00,89.3,73.6,30.11,SW,220,6.0,16.0,60,0.00,,,0.00,Wunderground v.1.15,2013-07-05 18:38:00,
2013-07-05 14:42:00,89.7,73.5,30.11,WSW,246,8.0,16.0,59,0.00,,,0.00,Wunderground v.1.15,2013-07-05 18:42:00,
2013-07-05 14:43:00,89.6,73.4,30.10,WNW,293,4.0,16.0,59,0.00,,,0.00,Wunderground v.1.15,2013-07-05 18:43:00,
2013-07-05 14:47:00,89.5,73.8,30.10,SSW,196,6.0,12.0,60,0.00,,,0.00,Wunderground v.1.15,2013-07-05 18:47:00,
2013-07-05 14:48:00,89.5,73.8,30.10,South,190,6.0,12.0,60,0.00,,,0.00,Wunderground v.1.15,2013-07-05 18:48:00,
2013-07-05 14:53:00,89.6,73.4,30.10,SW,226,6.0,12.0,59,0.00,,,0.00,Wunderground v.1.15,2013-07-05 18:53:00,
2013-07-05 14:54:00,89.7,74.0,30.10,West,263,4.0,5.0,60,0.00,,,0.00,Wunderground v.1.15,2013-07-05 18:54:00,
2013-07-05 14:58:00,89.6,73.9,30.10,WSW,254,1.0,15.0,60,0.00,,,0.00,Wunderground v.1.15,2013-07-05 18:58:00,
2013-07-05 14:59:00,89.5,73.8,30.10,WNW,285,4.0,15.0,60,0.00,,,0.00,Wunderground v.1.15,2013-07-05 18:59:00,
2013-07-05 15:03:00,89.4,73.7,30.10,SW,225,6.0,15.0,60,0.00,,,0.00,Wunderground v.1.15,2013-07-05 19:03:00,
2013-07-05 15:04:00,89.4,73.2,30.09,SW,225,9.0,12.0,59,0.00,,,0.00,Wunderground v.1.15,2013-07-05 19:04:00,
2013-07-05 15:05:00,89.3,73.6,30.09,South,184,7.0,12.0,60,0.00,,,0.00,Wunderground v.1.15,2013-07-05 19:05:00,
2013-07-05 15:08:00,89.3,73.1,30.09,NW,317,2.0,12.0,59,0.00,,,0.00,Wunderground v.1.15,2013-07-05 19:08:00,
2013-07-05 15:09:00,89.4,73.7,30.09,WSW,244,2.0,12.0,60,0.00,,,0.00,Wunderground v.1.15,2013-07-05 19:09:00,
2013-07-05 15:10:00,89.5,73.8,30.09,WSW,244,2.0,12.0,60,0.00,,,0.00,Wunderground v.1.15,2013-07-05 19:10:00,
2013-07-05 15:13:00,89.9,73.7,30.09,South,186,3.0,12.0,59,0.00,,,0.00,Wunderground v.1.15,2013-07-05 19:13:00,
2013-07-05 15:14:00,89.8,74.1,30.09,SW,227,5.0,5.0,60,0.00,,,0.00,Wunderground v.1.15,2013-07-05 19:14:00,
2013-07-05 15:15:00,89.5,73.8,30.09,SW,227,4.0,9.0,60,0.00,,,0.00,Wunderground v.1.15,2013-07-05 19:15:00,
2013-07-05 15:18:00,89.0,73.8,30.09,WSW,245,3.0,9.0,61,0.00,,,0.00,Wunderground v.1.15,2013-07-05 19:18:00,
2013-07-05 15:19:00,88.8,73.6,30.09,WSW,248,3.0,9.0,61,0.00,,,0.00,Wunderground v.1.15,2013-07-05 19:19:00,
2013-07-05 15:20:00,88.8,74.1,30.09,SSW,213,5.0,9.0,62,0.00,,,0.00,Wunderground v.1.15,2013-07-05 19:20:00,
2013-07-05 15:23:00,88.6,73.9,30.09,SSW,197,3.0,11.0,62,0.00,,,0.00,Wunderground v.1.15,2013-07-05 19:23:00,
2013-07-05 15:24:00,88.6,74.4,30.09,SW,215,3.0,4.0,63,0.00,,,0.00,Wunderground v.1.15,2013-07-05 19:24:00,
2013-07-05 15:26:00,88.6,73.9,30.09,SSE,161,11.0,11.0,62,0.00,,,0.00,Wunderground v.1.15,2013-07-05 19:26:00,
2013-07-05 15:28:00,88.5,73.8,30.08,SE,128,3.0,11.0,62,0.00,,,0.00,Wunderground v.1.15,2013-07-05 19:28:00,
2013-07-05 15:29:00,88.5,73.8,30.09,SW,218,4.0,11.0,62,0.00,,,0.00,Wunderground v.1.15,2013-07-05 19:29:00,
2013-07-05 15:31:00,88.6,74.4,30.08,South,174,2.0,11.0,63,0.00,,,0.00,Wunderground v.1.15,2013-07-05 19:31:00,
2013-07-05 15:33:00,88.7,74.5,30.09,SW,225,6.0,7.0,63,0.00,,,0.00,Wunderground v.1.15,2013-07-05 19:33:00,
2013-07-05 15:34:00,88.7,73.5,30.08,West,259,9.0,15.0,61,0.00,,,0.00,Wunderground v.1.15,2013-07-05 19:34:00,
2013-07-05 15:36:00,88.2,73.5,30.08,South,188,4.0,15.0,62,0.00,,,0.00,Wunderground v.1.15,2013-07-05 19:36:00,
2013-07-05 15:38:00,87.9,74.2,30.08,South,175,3.0,15.0,64,0.00,,,0.00,Wunderground v.1.15,2013-07-05 19:38:00,
2013-07-05 15:39:00,87.8,73.6,30.08,SE,138,7.0,15.0,63,0.00,,,0.00,Wunderground v.1.15,2013-07-05 19:39:00,
2013-07-05 15:41:00,88.0,73.3,30.08,WSW,255,7.0,15.0,62,0.00,,,0.00,Wunderground v.1.15,2013-07-05 19:41:00,
2013-07-05 15:43:00,88.2,74.0,30.08,SW,216,3.0,6.0,63,0.00,,,0.00,Wunderground v.1.15,2013-07-05 19:43:00,
2013-07-05 15:44:00,88.3,74.1,30.08,South,176,3.0,6.0,63,0.00,,,0.00,Wunderground v.1.15,2013-07-05 19:44:00,
2013-07-05 15:46:00,88.5,74.3,30.08,NW,321,6.0,9.0,63,0.00,,,0.00,Wunderground v.1.15,2013-07-05 19:46:00,
2013-07-05 15:48:00,88.7,74.0,30.08,South,171,6.0,9.0,62,0.00,,,0.00,Wunderground v.1.15,2013-07-05 19:48:00,
2013-07-05 15:49:00,88.8,73.6,30.08,South,191,5.0,9.0,61,0.00,,,0.00,Wunderground v.1.15,2013-07-05 19:49:00,
2013-07-05 15:51:00,88.8,73.6,30.08,WNW,283,4.0,9.0,61,0.00,,,0.00,Wunderground v.1.15,2013-07-05 19:51:00,
2013-07-05 15:54:00,89.0,73.8,30.08,South,177,3.0,7.0,61,0.00,,,0.00,Wunderground v.1.15,2013-07-05 19:54:00,
2013-07-05 15:55:00,88.9,73.7,30.08,South,172,6.0,9.0,61,0.00,,,0.00,Wunderground v.1.15,2013-07-05 19:55:00,
2013-07-05 15:56:00,88.8,73.1,30.08,South,182,2.0,9.0,60,0.00,,,0.00,Wunderground v.1.15,2013-07-05 19:56:00,
2013-07-05 15:59:00,89.1,73.9,30.08,WSW,238,6.0,9.0,61,0.00,,,0.00,Wunderground v.1.15,2013-07-05 19:59:00,
2013-07-05 16:00:00,89.1,73.9,30.08,South,184,3.0,9.0,61,0.00,,,0.00,Wunderground v.1.15,2013-07-05 20:00:00,
2013-07-05 16:02:00,89.1,73.4,30.08,East,101,4.0,13.0,60,0.00,,,0.00,Wunderground v.1.15,2013-07-05 20:02:00,
2013-07-05 16:04:00,89.1,73.4,30.08,SW,229,4.0,11.0,60,0.00,,,0.00,Wunderground v.1.15,2013-07-05 20:04:00,
2013-07-05 16:05:00,89.1,73.4,30.08,West,265,2.0,11.0,60,0.00,,,0.00,Wunderground v.1.15,2013-07-05 20:05:00,
2013-07-05 16:07:00,88.9,73.7,30.08,SSW,203,5.0,11.0,61,0.00,,,0.00,Wunderground v.1.15,2013-07-05 20:07:00,
2013-07-05 16:09:00,88.8,74.1,30.08,SSW,213,4.0,11.0,62,0.00,,,0.00,Wunderground v.1.15,2013-07-05 20:09:00,
2013-07-05 16:10:00,88.8,73.1,30.08,SW,218,7.0,11.0,60,0.00,,,0.00,Wunderground v.1.15,2013-07-05 20:10:00,
2013-07-05 16:12:00,88.6,73.9,30.08,SW,227,3.0,11.0,62,0.00,,,0.00,Wunderground v.1.15,2013-07-05 20:12:00,
2013-07-05 16:14:00,88.6,73.9,30.08,SSW,194,1.0,5.0,62,0.00,,,0.00,Wunderground v.1.15,2013-07-05 20:14:00,
2013-07-05 16:15:00,88.7,74.0,30.08,SW,216,2.0,5.0,62,0.00,,,0.00,Wunderground v.1.15,2013-07-05 20:15:00,
2013-07-05 16:16:00,88.9,74.7,30.08,WSW,247,2.0,5.0,63,0.00,,,0.00,Wunderground v.1.15,2013-07-05 20:16:00,
2013-07-05 16:17:00,89.1,74.4,30.08,SW,233,1.0,5.0,62,0.00,,,0.00,Wunderground v.1.15,2013-07-05 20:17:00,
2013-07-05 16:19:00,89.5,74.3,30.08,SSW,205,5.0,5.0,61,0.00,,,0.00,Wunderground v.1.15,2013-07-05 20:19:00,
2013-07-05 16:20:00,89.6,74.4,30.08,SSW,198,2.0,7.0,61,0.00,,,0.00,Wunderground v.1.15,2013-07-05 20:20:00,
2013-07-05 16:21:00,89.7,74.9,30.08,SW,227,0.0,7.0,62,0.00,,,0.00,Wunderground v.1.15,2013-07-05 20:21:00,
2013-07-05 16:22:00,89.6,73.9,30.07,SSW,192,5.0,10.0,60,0.00,,,0.00,Wunderground v.1.15,2013-07-05 20:22:00,
2013-07-05 16:24:00,89.3,73.6,30.07,South,188,3.0,9.0,60,0.00,,,0.00,Wunderground v.1.15,2013-07-05 20:24:00,
2013-07-05 16:25:00,89.3,73.6,30.07,West,275,6.0,9.0,60,0.00,,,0.00,Wunderground v.1.15,2013-07-05 20:25:00,
2013-07-05 16:26:00,89.2,74.0,30.08,SW,233,3.0,9.0,61,0.00,,,0.00,Wunderground v.1.15,2013-07-05 20:26:00,
2013-07-05 16:28:00,89.2,74.0,30.07,NW,313,2.0,9.0,61,0.00,,,0.00,Wunderground v.1.15,2013-07-05 20:28:00,
2013-07-05 16:30:00,89.3,74.1,30.07,WSW,244,7.0,9.0,61,0.00,,,0.00,Wunderground v.1.15,2013-07-05 20:30:00,
2013-07-05 16:31:00,89.3,74.1,30.08,WSW,253,11.0,11.0,61,0.00,,,0.00,Wunderground v.1.15,2013-07-05 20:31:00,
2013-07-05 16:33:00,89.1,73.4,30.07,WSW,248,3.0,11.0,60,0.00,,,0.00,Wunderground v.1.15,2013-07-05 20:33:00,
2013-07-05 16:35:00,89.0,72.3,30.07,SW,229,2.0,10.0,58,0.00,,,0.00,Wunderground v.1.15,2013-07-05 20:35:00,
2013-07-05 16:36:00,88.9,72.2,30.07,SW,214,4.0,10.0,58,0.00,,,0.00,Wunderground v.1.15,2013-07-05 20:36:00,
2013-07-05 16:37:00,88.9,72.7,30.07,SW,225,3.0,10.0,59,0.00,,,0.00,Wunderground v.1.15,2013-07-05 20:37:00,
2013-07-05 16:38:00,89.0,72.8,30.07,South,170,4.0,10.0,59,0.00,,,0.00,Wunderground v.1.15,2013-07-05 20:38:00,
2013-07-05 16:40:00,89.4,73.7,30.07,SE,132,4.0,10.0,60,0.00,,,0.00,Wunderground v.1.15,2013-07-05 20:40:00,
2013-07-05 16:41:00,89.5,73.3,30.07,SW,232,8.0,10.0,59,0.00,,,0.00,Wunderground v.1.15,2013-07-05 20:41:00,
2013-07-05 16:42:00,89.5,73.3,30.07,WSW,240,4.0,10.0,59,0.00,,,0.00,Wunderground v.1.15,2013-07-05 20:42:00,
2013-07-05 16:43:00,89.5,73.3,30.07,South,180,4.0,10.0,59,0.00,,,0.00,Wunderground v.1.15,2013-07-05 20:43:00,
2013-07-05 16:45:00,89.4,73.7,30.07,SW,221,1.0,4.0,60,0.00,,,0.00,Wunderground v.1.15,2013-07-05 20:45:00,
2013-07-05 16:46:00,89.4,73.7,30.07,South,184,2.0,4.0,60,0.00,,,0.00,Wunderground v.1.15,2013-07-05 20:46:00,
2013-07-05 16:47:00,89.5,73.8,30.07,East,84,2.0,9.0,60,0.00,,,0.00,Wunderground v.1.15,2013-07-05 20:47:00,
2013-07-05 16:48:00,89.3,73.1,30.07,SSW,203,8.0,14.0,59,0.00,,,0.00,Wunderground v.1.15,2013-07-05 20:48:00,
2013-07-05 16:50:00,88.8,72.6,30.07,West,262,2.0,14.0,59,0.00,,,0.00,Wunderground v.1.15,2013-07-05 20:50:00,
2013-07-05 16:51:00,88.8,72.6,30.07,SW,234,3.0,14.0,59,0.00,,,0.00,Wunderground v.1.15,2013-07-05 20:51:00,
2013-07-05 16:52:00,88.8,73.1,30.07,SW,215,2.0,14.0,60,0.00,,,0.00,Wunderground v.1.15,2013-07-05 20:52:00,
2013-07-05 16:53:00,88.8,72.6,30.07,SE,134,0.0,14.0,59,0.00,,,0.00,Wunderground v.1.15,2013-07-05 20:53:00,
2013-07-05 16:56:00,88.9,72.7,30.07,SSW,211,4.0,10.0,59,0.00,,,0.00,Wunderground v.1.15,2013-07-05 20:56:00,
2013-07-05 16:57:00,88.9,73.2,30.07,WNW,282,3.0,10.0,60,0.00,,,0.00,Wunderground v.1.15,2013-07-05 20:57:00,
2013-07-05 16:58:00,88.9,73.2,30.07,SSE,163,10.0,10.0,60,0.00,,,0.00,Wunderground v.1.15,2013-07-05 20:58:00,
2013-07-05 17:00:00,89.0,73.3,30.07,SW,228,4.0,10.0,60,0.00,,,0.00,Wunderground v.1.15,2013-07-05 21:00:00,
2013-07-05 17:01:00,88.9,73.2,30.07,SSW,205,7.0,12.0,60,0.00,,,0.00,Wunderground v.1.15,2013-07-05 21:01:00,
2013-07-05 17:02:00,88.8,73.1,30.07,WSW,255,4.0,12.0,60,0.00,,,0.00,Wunderground v.1.15,2013-07-05 21:02:00,
2013-07-05 17:03:00,88.8,73.1,30.07,South,184,2.0,12.0,60,0.00,,,0.00,Wunderground v.1.15,2013-07-05 21:03:00,
2013-07-05 17:06:00,88.6,72.4,30.07,SW,226,8.0,13.0,59,0.00,,,0.00,Wunderground v.1.15,2013-07-05 21:06:00,
2013-07-05 17:07:00,88.5,71.8,30.07,WSW,256,5.0,13.0,58,0.00,,,0.00,Wunderground v.1.15,2013-07-05 21:07:00,
2013-07-05 17:08:00,88.5,72.3,30.07,South,187,5.0,13.0,59,0.00,,,0.00,Wunderground v.1.15,2013-07-05 21:08:00,
2013-07-05 17:11:00,88.4,72.7,30.07,SW,230,5.0,13.0,60,0.00,,,0.00,Wunderground v.1.15,2013-07-05 21:11:00,
2013-07-05 17:12:00,88.3,72.7,30.07,SW,218,9.0,13.0,60,0.00,,,0.00,Wunderground v.1.15,2013-07-05 21:12:00,
2013-07-05 17:13:00,88.3,72.2,30.07,SW,227,8.0,13.0,59,0.00,,,0.00,Wunderground v.1.15,2013-07-05 21:13:00,
2013-07-05 17:16:00,88.3,72.7,30.07,West,264,1.0,8.0,60,0.00,,,0.00,Wunderground v.1.15,2013-07-05 21:16:00,
2013-07-05 17:17:00,88.4,73.2,30.07,North,5,5.0,9.0,61,0.00,,,0.00,Wunderground v.1.15,2013-07-05 21:17:00,
2013-07-05 17:18:00,88.5,73.3,30.07,WSW,247,8.0,9.0,61,0.00,,,0.00,Wunderground v.1.15,2013-07-05 21:18:00,
2013-07-05 17:21:00,88.4,72.2,30.07,SW,219,6.0,12.0,59,0.00,,,0.00,Wunderground v.1.15,2013-07-05 21:21:00,
2013-07-05 17:22:00,88.3,72.2,30.07,SW,234,7.0,12.0,59,0.00,,,0.00,Wunderground v.1.15,2013-07-05 21:22:00,
2013-07-05 17:23:00,88.3,72.2,30.07,SW,232,5.0,12.0,59,0.00,,,0.00,Wunderground v.1.15,2013-07-05 21:23:00,
2013-07-05 17:26:00,88.5,73.3,30.07,SSW,207,2.0,8.0,61,0.00,,,0.00,Wunderground v.1.15,2013-07-05 21:26:00,
2013-07-05 17:27:00,88.7,73.5,30.07,WSW,249,2.0,8.0,61,0.00,,,0.00,Wunderground v.1.15,2013-07-05 21:27:00,
2013-07-05 17:28:00,88.8,73.6,30.07,SSW,202,3.0,8.0,61,0.00,,,0.00,Wunderground v.1.15,2013-07-05 21:28:00,
2013-07-05 17:29:00,88.9,73.2,30.07,SW,228,5.0,8.0,60,0.00,,,0.00,Wunderground v.1.15,2013-07-05 21:29:00,
2013-07-05 17:31:00,88.8,73.6,30.07,NE,34,1.0,8.0,61,0.00,,,0.00,Wunderground v.1.15,2013-07-05 21:31:00,
2013-07-05 17:32:00,88.8,73.1,30.07,SW,227,4.0,8.0,60,0.00,,,0.00,Wunderground v.1.15,2013-07-05 21:32:00,
2013-07-05 17:33:00,88.8,73.1,30.07,NW,308,5.0,8.0,60,0.00,,,0.00,Wunderground v.1.15,2013-07-05 21:33:00,
2013-07-05 17:34:00,88.7,73.0,30.07,WSW,250,1.0,9.0,60,0.00,,,0.00,Wunderground v.1.15,2013-07-05 21:34:00,
2013-07-05 17:36:00,88.6,73.4,30.07,SW,219,4.0,9.0,61,0.00,,,0.00,Wunderground v.1.15,2013-07-05 21:36:00,
2013-07-05 17:37:00,88.6,73.4,30.07,South,181,5.0,9.0,61,0.00,,,0.00,Wunderground v.1.15,2013-07-05 21:37:00,
2013-07-05 17:38:00,88.6,73.4,30.07,South,181,2.0,9.0,61,0.00,,,0.00,Wunderground v.1.15,2013-07-05 21:38:00,
2013-07-05 17:39:00,88.6,73.4,30.07,SSW,206,4.0,9.0,61,0.00,,,0.00,Wunderground v.1.15,2013-07-05 21:39:00,
2013-07-05 17:42:00,88.5,73.3,30.07,SSE,158,3.0,9.0,61,0.00,,,0.00,Wunderground v.1.15,2013-07-05 21:42:00,
2013-07-05 17:43:00,88.5,73.8,30.07,WSW,250,7.0,9.0,62,0.00,,,0.00,Wunderground v.1.15,2013-07-05 21:43:00,
2013-07-05 17:44:00,88.4,73.2,30.07,SSW,213,1.0,8.0,61,0.00,,,0.00,Wunderground v.1.15,2013-07-05 21:44:00,
2013-07-05 17:45:00,88.3,73.6,30.07,WSW,247,7.0,8.0,62,0.00,,,0.00,Wunderground v.1.15,2013-07-05 21:45:00,
2013-07-05 17:47:00,88.2,73.5,30.07,South,184,1.0,8.0,62,0.00,,,0.00,Wunderground v.1.15,2013-07-05 21:47:00,
2013-07-05 17:48:00,88.3,73.6,30.07,South,179,2.0,8.0,62,0.00,,,0.00,Wunderground v.1.15,2013-07-05 21:48:00,
2013-07-05 17:49:00,88.3,74.1,30.07,South,178,2.0,8.0,63,0.00,,,0.00,Wunderground v.1.15,2013-07-05 21:49:00,
2013-07-05 17:50:00,88.4,74.2,30.07,SSW,194,2.0,8.0,63,0.00,,,0.00,Wunderground v.1.15,2013-07-05 21:50:00,
2013-07-05 17:53:00,88.6,73.9,30.07,SW,228,5.0,8.0,62,0.00,,,0.00,Wunderground v.1.15,2013-07-05 21:53:00,
2013-07-05 17:54:00,88.5,74.3,30.07,SSW,211,3.0,3.0,63,0.00,,,0.00,Wunderground v.1.15,2013-07-05 21:54:00,
2013-07-05 17:55:00,88.3,74.1,30.07,SW,219,8.0,10.0,63,0.00,,,0.00,Wunderground v.1.15,2013-07-05 21:55:00,
2013-07-05 17:58:00,87.9,74.2,30.07,SSW,207,6.0,12.0,64,0.00,,,0.00,Wunderground v.1.15,2013-07-05 21:58:00,
2013-07-05 18:00:00,87.9,74.7,30.07,South,186,4.0,12.0,65,0.00,,,0.00,Wunderground v.1.15,2013-07-05 22:00:00,
2013-07-05 18:03:00,87.6,74.8,30.07,WSW,249,9.0,12.0,66,0.00,,,0.00,Wunderground v.1.15,2013-07-05 22:03:00,
2013-07-05 18:04:00,87.5,74.7,30.07,ESE,115,7.0,7.0,66,0.00,,,0.00,Wunderground v.1.15,2013-07-05 22:04:00,
2013-07-05 18:05:00,87.4,75.1,30.07,South,182,4.0,10.0,67,0.00,,,0.00,Wunderground v.1.15,2013-07-05 22:05:00,
2013-07-05 18:08:00,87.1,75.3,30.07,WSW,237,7.0,12.0,68,0.00,,,0.00,Wunderground v.1.15,2013-07-05 22:08:00,
2013-07-05 18:09:00,87.0,75.2,30.07,SSW,192,3.0,12.0,68,0.00,,,0.00,Wunderground v.1.15,2013-07-05 22:09:00,
2013-07-05 18:10:00,87.0,75.2,30.07,SW,225,4.0,12.0,68,0.00,,,0.00,Wunderground v.1.15,2013-07-05 22:10:00,
2013-07-05 18:13:00,87.0,75.6,30.07,SW,221,3.0,12.0,69,0.00,,,0.00,Wunderground v.1.15,2013-07-05 22:13:00,
2013-07-05 18:14:00,87.0,75.6,30.07,SSW,194,4.0,7.0,69,0.00,,,0.00,Wunderground v.1.15,2013-07-05 22:14:00,
2013-07-05 18:15:00,87.0,75.6,30.06,SW,236,4.0,10.0,69,0.00,,,0.00,Wunderground v.1.15,2013-07-05 22:15:00,
2013-07-05 18:18:00,86.9,75.5,30.06,SSW,213,3.0,10.0,69,0.00,,,0.00,Wunderground v.1.15,2013-07-05 22:18:00,
2013-07-05 18:19:00,86.9,75.5,30.06,South,184,1.0,10.0,69,0.00,,,0.00,Wunderground v.1.15,2013-07-05 22:19:00,
2013-07-05 18:20:00,87.0,75.6,30.06,South,186,3.0,10.0,69,0.00,,,0.00,Wunderground v.1.15,2013-07-05 22:20:00,
2013-07-05 18:23:00,86.9,75.5,30.06,South,190,1.0,10.0,69,0.00,,,0.00,Wunderground v.1.15,2013-07-05 22:23:00,
2013-07-05 18:24:00,86.9,75.5,30.06,SW,221,8.0,10.0,69,0.00,,,0.00,Wunderground v.1.15,2013-07-05 22:24:00,
2013-07-05 18:25:00,86.8,75.4,30.06,SSW,213,8.0,10.0,69,0.00,,,0.00,Wunderground v.1.15,2013-07-05 22:25:00,
2013-07-05 18:26:00,86.7,75.3,30.06,SW,217,5.0,10.0,69,0.00,,,0.00,Wunderground v.1.15,2013-07-05 22:26:00,
2013-07-05 18:29:00,86.4,75.0,30.06,SSW,208,0.0,10.0,69,0.00,,,0.00,Wunderground v.1.15,2013-07-05 22:29:00,
2013-07-05 18:30:00,86.5,75.5,30.06,SSW,208,2.0,10.0,70,0.00,,,0.00,Wunderground v.1.15,2013-07-05 22:30:00,
2013-07-05 18:31:00,86.6,75.6,30.06,SSW,208,2.0,10.0,70,0.00,,,0.00,Wunderground v.1.15,2013-07-05 22:31:00,
2013-07-05 18:34:00,86.5,75.1,30.06,SSW,203,1.0,7.0,69,0.00,,,0.00,Wunderground v.1.15,2013-07-05 22:34:00,
2013-07-05 18:35:00,86.5,75.1,30.06,SW,233,6.0,7.0,69,0.00,,,0.00,Wunderground v.1.15,2013-07-05 22:35:00,
2013-07-05 18:36:00,86.4,75.0,30.06,SW,221,4.0,8.0,69,0.00,,,0.00,Wunderground v.1.15,2013-07-05 22:36:00,
2013-07-05 18:39:00,86.2,75.3,30.06,SSW,206,2.0,8.0,70,0.00,,,0.00,Wunderground v.1.15,2013-07-05 22:39:00,
2013-07-05 18:40:00,86.2,75.3,30.06,SSW,207,3.0,8.0,70,0.00,,,0.00,Wunderground v.1.15,2013-07-05 22:40:00,
2013-07-05 18:41:00,86.3,75.4,30.06,WSW,248,5.0,8.0,70,0.00,,,0.00,Wunderground v.1.15,2013-07-05 22:41:00,
2013-07-05 18:44:00,86.1,75.2,30.06,WSW,239,2.0,4.0,70,0.00,,,0.00,Wunderground v.1.15,2013-07-05 22:44:00,
2013-07-05 18:45:00,86.1,75.2,30.06,SSE,159,2.0,10.0,70,0.00,,,0.00,Wunderground v.1.15,2013-07-05 22:45:00,
2013-07-05 18:46:00,86.1,74.7,30.06,SSE,157,2.0,10.0,69,0.00,,,0.00,Wunderground v.1.15,2013-07-05 22:46:00,
2013-07-05 18:49:00,85.9,74.5,30.06,SSW,200,3.0,10.0,69,0.00,,,0.00,Wunderground v.1.15,2013-07-05 22:49:00,
2013-07-05 18:50:00,85.9,74.5,30.06,SSW,205,2.0,10.0,69,0.00,,,0.00,Wunderground v.1.15,2013-07-05 22:50:00,
2013-07-05 18:51:00,85.8,74.9,30.06,SSW,207,2.0,10.0,70,0.00,,,0.00,Wunderground v.1.15,2013-07-05 22:51:00,
2013-07-05 18:52:00,85.8,74.4,30.06,SW,216,3.0,10.0,69,0.00,,,0.00,Wunderground v.1.15,2013-07-05 22:52:00,
2013-07-05 18:54:00,85.6,73.8,30.06,SW,222,7.0,13.0,68,0.00,,,0.00,Wunderground v.1.15,2013-07-05 22:54:00,
2013-07-05 18:55:00,85.5,74.2,30.06,WSW,240,4.0,13.0,69,0.00,,,0.00,Wunderground v.1.15,2013-07-05 22:55:00,
2013-07-05 18:56:00,85.4,74.1,30.06,SSW,192,4.0,13.0,69,0.00,,,0.00,Wunderground v.1.15,2013-07-05 22:56:00,
2013-07-05 18:57:00,85.4,74.1,30.06,SSW,198,7.0,13.0,69,0.00,,,0.00,Wunderground v.1.15,2013-07-05 22:57:00,
2013-07-05 18:59:00,85.2,74.3,30.06,SSW,205,10.0,13.0,70,0.00,,,0.00,Wunderground v.1.15,2013-07-05 22:59:00,
2013-07-05 19:00:00,85.1,73.8,30.06,SW,221,9.0,13.0,69,0.00,,,0.00,Wunderground v.1.15,2013-07-05 23:00:00,
2013-07-05 19:01:00,85.1,73.8,30.06,WSW,244,4.0,13.0,69,0.00,,,0.00,Wunderground v.1.15,2013-07-05 23:01:00,
2013-07-05 19:02:00,85.0,73.7,30.06,SSW,207,6.0,13.0,69,0.00,,,0.00,Wunderground v.1.15,2013-07-05 23:02:00,
2013-07-05 19:04:00,85.0,73.7,30.06,SSW,203,2.0,7.0,69,0.00,,,0.00,Wunderground v.1.15,2013-07-05 23:04:00,
2013-07-05 19:05:00,85.0,73.7,30.06,WSW,247,4.0,7.0,69,0.00,,,0.00,Wunderground v.1.15,2013-07-05 23:05:00,
2013-07-05 19:07:00,85.0,73.7,30.06,SW,215,5.0,8.0,69,0.00,,,0.00,Wunderground v.1.15,2013-07-05 23:07:00,
2013-07-05 19:10:00,84.9,73.6,30.06,South,180,2.0,9.0,69,0.00,,,0.00,Wunderground v.1.15,2013-07-05 23:10:00,
2013-07-05 19:11:00,84.9,73.2,30.06,SW,218,9.0,12.0,68,0.00,,,0.00,Wunderground v.1.15,2013-07-05 23:11:00,
2013-07-05 19:12:00,84.9,73.2,30.06,South,183,3.0,12.0,68,0.00,,,0.00,Wunderground v.1.15,2013-07-05 23:12:00,
2013-07-05 19:15:00,84.8,73.5,30.06,SSW,205,3.0,10.0,69,0.00,,,0.00,Wunderground v.1.15,2013-07-05 23:15:00,
2013-07-05 19:16:00,84.8,73.1,30.06,SSW,203,4.0,10.0,68,0.00,,,0.00,Wunderground v.1.15,2013-07-05 23:16:00,
2013-07-05 19:17:00,84.9,73.2,30.06,SSW,213,1.0,10.0,68,0.00,,,0.00,Wunderground v.1.15,2013-07-05 23:17:00,
2013-07-05 19:20:00,84.9,73.2,30.06,SE,130,3.0,10.0,68,0.00,,,0.00,Wunderground v.1.15,2013-07-05 23:20:00,
2013-07-05 19:21:00,84.8,73.5,30.06,South,171,4.0,10.0,69,0.00,,,0.00,Wunderground v.1.15,2013-07-05 23:21:00,
2013-07-05 19:22:00,84.7,73.4,30.06,SW,223,0.0,10.0,69,0.00,,,0.00,Wunderground v.1.15,2013-07-05 23:22:00,
2013-07-05 19:26:00,84.8,73.1,30.06,SW,230,3.0,8.0,68,0.00,,,0.00,Wunderground v.1.15,2013-07-05 23:26:00,
2013-07-05 19:27:00,84.7,73.4,30.06,South,191,1.0,8.0,69,0.00,,,0.00,Wunderground v.1.15,2013-07-05 23:27:00,
2013-07-05 19:28:00,84.6,73.3,30.06,SW,218,3.0,8.0,69,0.00,,,0.00,Wunderground v.1.15,2013-07-05 23:28:00,
2013-07-05 19:31:00,84.4,73.5,30.06,SW,219,0.0,8.0,70,0.00,,,0.00,Wunderground v.1.15,2013-07-05 23:31:00,
2013-07-05 19:32:00,84.3,73.4,30.06,SW,219,2.0,8.0,70,0.00,,,0.00,Wunderground v.1.15,2013-07-05 23:32:00,
2013-07-05 19:33:00,84.3,73.4,30.06,SW,214,3.0,3.0,70,0.00,,,0.00,Wunderground v.1.15,2013-07-05 23:33:00,
2013-07-05 19:36:00,84.1,73.7,30.06,South,190,2.0,5.0,71,0.00,,,0.00,Wunderground v.1.15,2013-07-05 23:36:00,
2013-07-05 19:37:00,84.0,73.6,30.06,SSW,206,5.0,5.0,71,0.00,,,0.00,Wunderground v.1.15,2013-07-05 23:37:00,
2013-07-05 19:38:00,84.0,73.6,30.05,SSE,165,2.0,5.0,71,0.00,,,0.00,Wunderground v.1.15,2013-07-05 23:38:00,
2013-07-05 19:41:00,83.7,73.7,30.05,SSW,213,3.0,6.0,72,0.00,,,0.00,Wunderground v.1.15,2013-07-05 23:41:00,
2013-07-05 19:42:00,83.6,73.6,30.05,SSW,213,1.0,6.0,72,0.00,,,0.00,Wunderground v.1.15,2013-07-05 23:42:00,
2013-07-05 19:43:00,83.5,73.5,30.05,SSW,198,1.0,6.0,72,0.00,,,0.00,Wunderground v.1.15,2013-07-05 23:43:00,
2013-07-05 19:44:00,83.5,73.5,30.05,SSW,194,2.0,3.0,72,0.00,,,0.00,Wunderground v.1.15,2013-07-05 23:44:00,
2013-07-05 19:46:00,83.4,73.8,30.05,SSE,157,1.0,3.0,73,0.00,,,0.00,Wunderground v.1.15,2013-07-05 23:46:00,
2013-07-05 19:47:00,83.3,73.7,30.06,SSE,157,0.0,3.0,73,0.00,,,0.00,Wunderground v.1.15,2013-07-05 23:47:00,
2013-07-05 19:48:00,83.3,73.7,30.05,SSW,204,2.0,5.0,73,0.00,,,0.00,Wunderground v.1.15,2013-07-05 23:48:00,
2013-07-05 19:49:00,83.2,73.6,30.05,South,186,2.0,7.0,73,0.00,,,0.00,Wunderground v.1.15,2013-07-05 23:49:00,
2013-07-05 19:51:00,82.9,73.8,30.05,SW,229,1.0,9.0,74,0.00,,,0.00,Wunderground v.1.15,2013-07-05 23:51:00,
2013-07-05 19:52:00,82.9,73.8,30.05,SW,229,3.0,9.0,74,0.00,,,0.00,Wunderground v.1.15,2013-07-05 23:52:00,
2013-07-05 19:53:00,82.8,73.7,30.05,SW,214,4.0,9.0,74,0.00,,,0.00,Wunderground v.1.15,2013-07-05 23:53:00,
2013-07-05 19:54:00,82.7,73.6,30.05,SW,223,2.0,4.0,74,0.00,,,0.00,Wunderground v.1.15,2013-07-05 23:54:00,
2013-07-05 19:57:00,82.5,73.4,30.06,SW,229,4.0,6.0,74,0.00,,,0.00,Wunderground v.1.15,2013-07-05 23:57:00,
2013-07-05 19:58:00,82.5,73.8,30.05,SW,230,0.0,6.0,75,0.00,,,0.00,Wunderground v.1.15,2013-07-05 23:58:00,
2013-07-05 19:59:00,82.4,73.7,30.05,SW,230,0.0,6.0,75,0.00,,,0.00,Wunderground v.1.15,2013-07-05 23:59:00,
2013-07-05 20:02:00,82.3,73.6,30.05,SW,221,2.0,6.0,75,0.00,,,0.00,Wunderground v.1.15,2013-07-06 00:02:00,
2013-07-05 20:03:00,82.2,73.5,30.05,SSW,213,0.0,6.0,75,0.00,,,0.00,Wunderground v.1.15,2013-07-06 00:03:00,
2013-07-05 20:04:00,82.2,73.9,30.05,SW,217,3.0,3.0,76,0.00,,,0.00,Wunderground v.1.15,2013-07-06 00:04:00,
2013-07-05 20:05:00,82.1,73.8,30.05,WSW,242,1.0,3.0,76,0.00,,,0.00,Wunderground v.1.15,2013-07-06 00:05:00,
2013-07-05 20:07:00,82.0,73.7,30.05,SSW,200,4.0,4.0,76,0.00,,,0.00,Wunderground v.1.15,2013-07-06 00:07:00,
2013-07-05 20:08:00,82.0,73.7,30.05,SSW,204,2.0,4.0,76,0.00,,,0.00,Wunderground v.1.15,2013-07-06 00:08:00,
2013-07-05 20:09:00,81.9,74.0,30.06,SW,234,4.0,4.0,77,0.00,,,0.00,Wunderground v.1.15,2013-07-06 00:09:00,
2013-07-05 20:10:00,81.8,73.9,30.06,SW,215,3.0,6.0,77,0.00,,,0.00,Wunderground v.1.15,2013-07-06 00:10:00,
2013-07-05 20:12:00,81.7,73.8,30.06,SSW,200,7.0,7.0,77,0.00,,,0.00,Wunderground v.1.15,2013-07-06 00:12:00,
2013-07-05 20:13:00,81.7,73.8,30.06,East,97,3.0,8.0,77,0.00,,,0.00,Wunderground v.1.15,2013-07-06 00:13:00,
2013-07-05 20:14:00,81.7,73.8,30.06,SSW,194,1.0,4.0,77,0.00,,,0.00,Wunderground v.1.15,2013-07-06 00:14:00,
2013-07-05 20:15:00,81.6,73.7,30.06,South,190,2.0,4.0,77,0.00,,,0.00,Wunderground v.1.15,2013-07-06 00:15:00,
2013-07-05 20:17:00,81.6,73.7,30.06,SSW,211,3.0,4.0,77,0.00,,,0.00,Wunderground v.1.15,2013-07-06 00:17:00,
2013-07-05 20:18:00,81.6,73.7,30.06,SSW,199,3.0,6.0,77,0.00,,,0.00,Wunderground v.1.15,2013-07-06 00:18:00,
2013-07-05 20:19:00,81.5,74.0,30.06,SW,232,4.0,6.0,78,0.00,,,0.00,Wunderground v.1.15,2013-07-06 00:19:00,
2013-07-05 20:20:00,81.5,74.0,30.06,SW,223,3.0,6.0,78,0.00,,,0.00,Wunderground v.1.15,2013-07-06 00:20:00,
2013-07-05 20:22:00,81.4,73.9,30.05,SW,235,4.0,6.0,78,0.00,,,0.00,Wunderground v.1.15,2013-07-06 00:22:00,
2013-07-05 20:23:00,81.4,73.9,30.06,SSW,200,5.0,6.0,78,0.00,,,0.00,Wunderground v.1.15,2013-07-06 00:23:00,
2013-07-05 20:24:00,81.4,73.9,30.06,SW,236,3.0,6.0,78,0.00,,,0.00,Wunderground v.1.15,2013-07-06 00:24:00,
2013-07-05 20:25:00,81.3,73.8,30.06,SW,223,1.0,6.0,78,0.00,,,0.00,Wunderground v.1.15,2013-07-06 00:25:00,
2013-07-05 20:28:00,81.2,73.7,30.05,SW,220,1.0,6.0,78,0.00,,,0.00,Wunderground v.1.15,2013-07-06 00:28:00,
2013-07-05 20:29:00,81.2,73.7,30.06,SSW,207,5.0,6.0,78,0.00,,,0.00,Wunderground v.1.15,2013-07-06 00:29:00,
2013-07-05 20:31:00,81.2,74.1,30.06,SW,220,1.0,6.0,79,0.00,,,0.00,Wunderground v.1.15,2013-07-06 00:31:00,
2013-07-05 20:33:00,81.1,74.0,30.06,South,175,4.0,5.0,79,0.00,,,0.00,Wunderground v.1.15,2013-07-06 00:33:00,
2013-07-05 20:34:00,81.1,74.0,30.06,SE,145,2.0,5.0,79,0.00,,,0.00,Wunderground v.1.15,2013-07-06 00:34:00,
2013-07-05 20:35:00,81.1,74.0,30.06,SW,220,0.0,5.0,79,0.00,,,0.00,Wunderground v.1.15,2013-07-06 00:35:00,
2013-07-05 20:36:00,81.0,73.9,30.06,SW,223,0.0,5.0,79,0.00,,,0.00,Wunderground v.1.15,2013-07-06 00:36:00,
2013-07-05 20:38:00,80.9,73.8,30.06,SW,230,3.0,8.0,79,0.00,,,0.00,Wunderground v.1.15,2013-07-06 00:38:00,
2013-07-05 20:39:00,80.9,73.8,30.06,SW,236,2.0,8.0,79,0.00,,,0.00,Wunderground v.1.15,2013-07-06 00:39:00,
2013-07-05 20:40:00,80.9,73.8,30.06,SSW,198,3.0,8.0,79,0.00,,,0.00,Wunderground v.1.15,2013-07-06 00:40:00,
2013-07-05 20:41:00,80.8,73.7,30.06,SSW,210,3.0,8.0,79,0.00,,,0.00,Wunderground v.1.15,2013-07-06 00:41:00,
2013-07-05 20:43:00,80.7,73.6,30.06,SSW,203,1.0,3.0,79,0.00,,,0.00,Wunderground v.1.15,2013-07-06 00:43:00,
2013-07-05 20:44:00,80.7,74.0,30.06,SSW,203,1.0,3.0,80,0.00,,,0.00,Wunderground v.1.15,2013-07-06 00:44:00,
2013-07-05 20:45:00,80.7,74.0,30.06,SSW,203,1.0,3.0,80,0.00,,,0.00,Wunderground v.1.15,2013-07-06 00:45:00,
2013-07-05 20:47:00,80.6,73.9,30.06,South,180,6.0,7.0,80,0.00,,,0.00,Wunderground v.1.15,2013-07-06 00:47:00,
2013-07-05 20:48:00,80.5,73.8,30.06,SSW,207,2.0,7.0,80,0.00,,,0.00,Wunderground v.1.15,2013-07-06 00:48:00,
2013-07-05 20:49:00,80.5,73.8,30.06,SSW,211,3.0,7.0,80,0.00,,,0.00,Wunderground v.1.15,2013-07-06 00:49:00,
2013-07-05 20:50:00,80.4,73.7,30.06,SSW,211,3.0,7.0,80,0.00,,,0.00,Wunderground v.1.15,2013-07-06 00:50:00,
2013-07-05 20:51:00,80.4,73.7,30.06,WSW,249,7.0,8.0,80,0.00,,,0.00,Wunderground v.1.15,2013-07-06 00:51:00,
2013-07-05 20:53:00,80.3,73.6,30.06,SW,223,2.0,8.0,80,0.00,,,0.00,Wunderground v.1.15,2013-07-06 00:53:00,
2013-07-05 20:54:00,80.3,73.6,30.07,SW,223,1.0,3.0,80,0.00,,,0.00,Wunderground v.1.15,2013-07-06 00:54:00,
2013-07-05 20:55:00,80.3,73.6,30.06,SSW,202,5.0,9.0,80,0.00,,,0.00,Wunderground v.1.15,2013-07-06 00:55:00,
2013-07-05 20:56:00,80.3,73.6,30.06,SSW,192,1.0,9.0,80,0.00,,,0.00,Wunderground v.1.15,2013-07-06 00:56:00,
2013-07-05 20:58:00,80.3,73.6,30.06,SW,228,4.0,9.0,80,0.00,,,0.00,Wunderground v.1.15,2013-07-06 00:58:00,
2013-07-05 20:59:00,80.2,73.5,30.06,SW,226,3.0,9.0,80,0.00,,,0.00,Wunderground v.1.15,2013-07-06 00:59:00,
2013-07-05 21:00:00,80.2,73.8,30.06,SW,226,2.0,9.0,81,0.00,,,0.00,Wunderground v.1.15,2013-07-06 01:00:00,
2013-07-05 21:01:00,80.2,73.5,30.06,SSW,210,4.0,9.0,80,0.00,,,0.00,Wunderground v.1.15,2013-07-06 01:01:00,
2013-07-05 21:03:00,80.1,73.7,30.07,SSW,209,4.0,9.0,81,0.00,,,0.00,Wunderground v.1.15,2013-07-06 01:03:00,
2013-07-05 21:04:00,80.1,73.7,30.07,SSW,208,4.0,8.0,81,0.00,,,0.00,Wunderground v.1.15,2013-07-06 01:04:00,
2013-07-05 21:05:00,80.1,73.7,30.07,SSW,208,2.0,8.0,81,0.00,,,0.00,Wunderground v.1.15,2013-07-06 01:05:00,
2013-07-05 21:06:00,80.1,73.7,30.07,South,180,5.0,8.0,81,0.00,,,0.00,Wunderground v.1.15,2013-07-06 01:06:00,
2013-07-05 21:08:00,80.0,73.6,30.07,WSW,248,2.0,10.0,81,0.00,,,0.00,Wunderground v.1.15,2013-07-06 01:08:00,
2013-07-05 21:09:00,80.0,73.6,30.07,SSW,202,1.0,10.0,81,0.00,,,0.00,Wunderground v.1.15,2013-07-06 01:09:00,
2013-07-05 21:10:00,80.0,73.6,30.07,SW,225,3.0,10.0,81,0.00,,,0.00,Wunderground v.1.15,2013-07-06 01:10:00,
2013-07-05 21:11:00,80.0,73.6,30.07,South,180,5.0,11.0,81,0.00,,,0.00,Wunderground v.1.15,2013-07-06 01:11:00,
2013-07-05 21:13:00,79.9,73.5,30.07,WSW,241,4.0,4.0,81,0.00,,,0.00,Wunderground v.1.15,2013-07-06 01:13:00,
2013-07-05 21:15:00,79.9,73.5,30.07,WSW,258,2.0,8.0,81,0.00,,,0.00,Wunderground v.1.15,2013-07-06 01:15:00,
2013-07-05 21:16:00,79.8,73.4,30.07,SW,217,3.0,8.0,81,0.00,,,0.00,Wunderground v.1.15,2013-07-06 01:16:00,
2013-07-05 21:19:00,79.8,73.4,30.07,SW,224,5.0,8.0,81,0.00,,,0.00,Wunderground v.1.15,2013-07-06 01:19:00,
2013-07-05 21:20:00,79.7,73.3,30.07,SW,231,4.0,8.0,81,0.00,,,0.00,Wunderground v.1.15,2013-07-06 01:20:00,
2013-07-05 21:21:00,79.7,73.3,30.07,SW,235,2.0,8.0,81,0.00,,,0.00,Wunderground v.1.15,2013-07-06 01:21:00,
2013-07-05 21:24:00,79.6,73.3,30.07,SSW,213,0.0,3.0,81,0.00,,,0.00,Wunderground v.1.15,2013-07-06 01:24:00,
2013-07-05 21:25:00,79.6,73.6,30.08,South,175,2.0,3.0,82,0.00,,,0.00,Wunderground v.1.15,2013-07-06 01:25:00,
2013-07-05 21:26:00,79.6,73.3,30.08,WSW,258,6.0,6.0,81,0.00,,,0.00,Wunderground v.1.15,2013-07-06 01:26:00,
2013-07-05 21:27:00,79.5,73.2,30.08,SSW,206,3.0,6.0,81,0.00,,,0.00,Wunderground v.1.15,2013-07-06 01:27:00,
2013-07-05 21:29:00,79.5,73.5,30.07,SSW,196,0.0,6.0,82,0.00,,,0.00,Wunderground v.1.15,2013-07-06 01:29:00,
2013-07-05 21:30:00,79.5,73.5,30.07,SSW,196,1.0,6.0,82,0.00,,,0.00,Wunderground v.1.15,2013-07-06 01:30:00,
2013-07-05 21:31:00,79.5,73.5,30.08,SSW,213,4.0,6.0,82,0.00,,,0.00,Wunderground v.1.15,2013-07-06 01:31:00,
2013-07-05 21:32:00,79.4,73.4,30.07,WSW,239,2.0,6.0,82,0.00,,,0.00,Wunderground v.1.15,2013-07-06 01:32:00,
2013-07-05 21:35:00,79.3,73.3,30.08,SW,221,4.0,7.0,82,0.00,,,0.00,Wunderground v.1.15,2013-07-06 01:35:00,
2013-07-05 21:36:00,79.3,73.3,30.08,SW,229,7.0,9.0,82,0.00,,,0.00,Wunderground v.1.15,2013-07-06 01:36:00,
2013-07-05 21:37:00,79.3,73.3,30.08,SW,227,5.0,9.0,82,0.00,,,0.00,Wunderground v.1.15,2013-07-06 01:37:00,
2013-07-05 21:40:00,79.2,73.2,30.08,SW,214,2.0,9.0,82,0.00,,,0.00,Wunderground v.1.15,2013-07-06 01:40:00,
2013-07-05 21:41:00,79.2,73.2,30.08,West,262,7.0,9.0,82,0.00,,,0.00,Wunderground v.1.15,2013-07-06 01:41:00,
2013-07-05 21:42:00,79.2,73.2,30.08,SSW,211,3.0,9.0,82,0.00,,,0.00,Wunderground v.1.15,2013-07-06 01:42:00,
2013-07-05 21:45:00,79.1,73.1,30.08,SSW,200,3.0,6.0,82,0.00,,,0.00,Wunderground v.1.15,2013-07-06 01:45:00,
2013-07-05 21:46:00,79.1,73.1,30.08,WSW,252,2.0,6.0,82,0.00,,,0.00,Wunderground v.1.15,2013-07-06 01:46:00,
2013-07-05 21:47:00,79.1,73.1,30.08,WSW,249,0.0,6.0,82,0.00,,,0.00,Wunderground v.1.15,2013-07-06 01:47:00,
2013-07-05 21:50:00,79.0,73.0,30.08,SSW,207,1.0,6.0,82,0.00,,,0.00,Wunderground v.1.15,2013-07-06 01:50:00,
2013-07-05 21:51:00,79.0,73.0,30.08,SSW,209,3.0,6.0,82,0.00,,,0.00,Wunderground v.1.15,2013-07-06 01:51:00,
2013-07-05 21:52:00,79.0,73.0,30.08,WSW,242,2.0,6.0,82,0.00,,,0.00,Wunderground v.1.15,2013-07-06 01:52:00,
2013-07-05 21:56:00,78.9,72.9,30.08,SW,216,4.0,8.0,82,0.00,,,0.00,Wunderground v.1.15,2013-07-06 01:56:00,
2013-07-05 21:57:00,78.9,72.9,30.08,SSW,198,1.0,10.0,82,0.00,,,0.00,Wunderground v.1.15,2013-07-06 01:57:00,
2013-07-05 22:01:00,78.8,73.2,30.08,WSW,257,4.0,10.0,83,0.00,,,0.00,Wunderground v.1.15,2013-07-06 02:01:00,
2013-07-05 22:02:00,78.7,73.1,30.08,West,281,3.0,10.0,83,0.00,,,0.00,Wunderground v.1.15,2013-07-06 02:02:00,
2013-07-05 22:06:00,78.6,73.0,30.08,SSW,209,4.0,7.0,83,0.00,,,0.00,Wunderground v.1.15,2013-07-06 02:06:00,
2013-07-05 22:07:00,78.5,72.9,30.08,SW,215,1.0,7.0,83,0.00,,,0.00,Wunderground v.1.15,2013-07-06 02:07:00,
2013-07-05 22:08:00,78.5,72.9,30.08,SSW,212,3.0,7.0,83,0.00,,,0.00,Wunderground v.1.15,2013-07-06 02:08:00,
2013-07-05 22:12:00,78.4,72.8,30.07,WSW,249,1.0,7.0,83,0.00,,,0.00,Wunderground v.1.15,2013-07-06 02:12:00,
2013-07-05 22:13:00,78.4,72.8,30.07,South,190,2.0,7.0,83,0.00,,,0.00,Wunderground v.1.15,2013-07-06 02:13:00,
2013-07-05 22:17:00,78.3,72.7,30.07,SW,234,2.0,6.0,83,0.00,,,0.00,Wunderground v.1.15,2013-07-06 02:17:00,
2013-07-05 22:18:00,78.2,72.6,30.07,SSW,192,1.0,6.0,83,0.00,,,0.00,Wunderground v.1.15,2013-07-06 02:18:00,
2013-07-05 22:22:00,78.1,72.5,30.07,SW,233,4.0,9.0,83,0.00,,,0.00,Wunderground v.1.15,2013-07-06 02:22:00,
2013-07-05 22:23:00,78.1,72.5,30.07,SW,236,2.0,9.0,83,0.00,,,0.00,Wunderground v.1.15,2013-07-06 02:23:00,
2013-07-05 22:27:00,78.0,72.8,30.07,WSW,254,9.0,9.0,84,0.00,,,0.00,Wunderground v.1.15,2013-07-06 02:27:00,
2013-07-05 22:28:00,78.0,72.4,30.07,SW,227,6.0,9.0,83,0.00,,,0.00,Wunderground v.1.15,2013-07-06 02:28:00,
2013-07-05 22:32:00,77.9,72.7,30.07,SSW,204,7.0,9.0,84,0.00,,,0.00,Wunderground v.1.15,2013-07-06 02:32:00,
2013-07-05 22:33:00,77.9,72.7,30.07,SSW,202,4.0,9.0,84,0.00,,,0.00,Wunderground v.1.15,2013-07-06 02:33:00,
2013-07-05 22:37:00,77.8,72.6,30.07,West,269,2.0,9.0,84,0.00,,,0.00,Wunderground v.1.15,2013-07-06 02:37:00,
2013-07-05 22:38:00,77.8,72.6,30.07,SW,227,1.0,9.0,84,0.00,,,0.00,Wunderground v.1.15,2013-07-06 02:38:00,
2013-07-05 22:43:00,77.7,72.5,30.07,SSW,192,2.0,9.0,84,0.00,,,0.00,Wunderground v.1.15,2013-07-06 02:43:00,
2013-07-05 22:44:00,77.7,72.5,30.07,SSW,192,1.0,3.0,84,0.00,,,0.00,Wunderground v.1.15,2013-07-06 02:44:00,
2013-07-05 22:48:00,77.6,72.4,30.07,SSW,210,7.0,11.0,84,0.00,,,0.00,Wunderground v.1.15,2013-07-06 02:48:00,
2013-07-05 22:49:00,77.6,72.4,30.07,SW,214,1.0,11.0,84,0.00,,,0.00,Wunderground v.1.15,2013-07-06 02:49:00,
2013-07-05 22:53:00,77.5,72.3,30.07,SW,217,2.0,3.0,84,0.00,,,0.00,Wunderground v.1.15,2013-07-06 02:53:00,
2013-07-05 22:54:00,77.5,72.3,30.07,SW,217,1.0,3.0,84,0.00,,,0.00,Wunderground v.1.15,2013-07-06 02:54:00,
2013-07-05 22:58:00,77.5,72.3,30.07,West,260,4.0,11.0,84,0.00,,,0.00,Wunderground v.1.15,2013-07-06 02:58:00,
2013-07-05 22:59:00,77.5,72.3,30.07,SW,225,3.0,11.0,84,0.00,,,0.00,Wunderground v.1.15,2013-07-06 02:59:00,
2013-07-05 23:03:00,77.3,72.1,30.07,SW,216,2.0,3.0,84,0.00,,,0.00,Wunderground v.1.15,2013-07-06 03:03:00,
2013-07-05 23:04:00,77.3,72.1,30.07,SSW,213,1.0,5.0,84,0.00,,,0.00,Wunderground v.1.15,2013-07-06 03:04:00,
2013-07-05 23:09:00,77.2,72.0,30.07,SSW,198,5.0,6.0,84,0.00,,,0.00,Wunderground v.1.15,2013-07-06 03:09:00,
2013-07-05 23:10:00,77.2,72.0,30.07,WSW,244,7.0,7.0,84,0.00,,,0.00,Wunderground v.1.15,2013-07-06 03:10:00,
2013-07-05 23:14:00,77.2,72.0,30.07,SW,221,1.0,3.0,84,0.00,,,0.00,Wunderground v.1.15,2013-07-06 03:14:00,
2013-07-05 23:15:00,77.2,72.0,30.07,SW,221,0.0,3.0,84,0.00,,,0.00,Wunderground v.1.15,2013-07-06 03:15:00,
2013-07-05 23:19:00,77.1,71.9,30.07,SW,227,5.0,8.0,84,0.00,,,0.00,Wunderground v.1.15,2013-07-06 03:19:00,
2013-07-05 23:20:00,77.1,71.9,30.07,SW,232,4.0,8.0,84,0.00,,,0.00,Wunderground v.1.15,2013-07-06 03:20:00,
2013-07-05 23:25:00,77.0,71.8,30.07,SSW,208,3.0,5.0,84,0.00,,,0.00,Wunderground v.1.15,2013-07-06 03:25:00,
2013-07-05 23:30:00,76.9,71.7,30.08,WSW,240,1.0,5.0,84,0.00,,,0.00,Wunderground v.1.15,2013-07-06 03:30:00,
2013-07-05 23:35:00,76.8,71.6,30.08,WSW,252,4.0,5.0,84,0.00,,,0.00,Wunderground v.1.15,2013-07-06 03:35:00,
2013-07-05 23:36:00,76.8,71.6,30.08,WSW,246,2.0,5.0,84,0.00,,,0.00,Wunderground v.1.15,2013-07-06 03:36:00,
2013-07-05 23:37:00,76.4,71.2,30.07,SE,132,1.0,8.0,84,0.00,,,0.00,Wunderground v.1.15,2013-07-06 03:37:00,
2013-07-05 23:38:00,76.4,71.2,30.07,WSW,246,7.0,10.0,84,0.00,,,0.00,Wunderground v.1.15,2013-07-06 03:38:00,
2013-07-05 23:39:00,76.4,71.2,30.07,West,260,7.0,10.0,84,0.00,,,0.00,Wunderground v.1.15,2013-07-06 03:39:00,
2013-07-05 23:40:00,76.7,71.5,30.08,WSW,239,1.0,8.0,84,0.00,,,0.00,Wunderground v.1.15,2013-07-06 03:40:00,
2013-07-05 23:41:00,76.7,71.5,30.08,WSW,239,1.0,8.0,84,0.00,,,0.00,Wunderground v.1.15,2013-07-06 03:41:00,
2013-07-05 23:42:00,76.4,71.2,30.07,SW,230,2.0,6.0,84,0.00,,,0.00,Wunderground v.1.15,2013-07-06 03:42:00,
2013-07-05 23:45:00,76.6,71.4,30.08,SW,236,2.0,6.0,84,0.00,,,0.00,Wunderground v.1.15,2013-07-06 03:45:00,
2013-07-05 23:46:00,76.6,71.4,30.08,WSW,238,4.0,6.0,84,0.00,,,0.00,Wunderground v.1.15,2013-07-06 03:46:00,
2013-07-05 23:50:00,76.5,71.3,30.08,SW,224,4.0,8.0,84,0.00,,,0.00,Wunderground v.1.15,2013-07-06 03:50:00,
2013-07-05 23:51:00,76.5,71.3,30.08,SSW,198,2.0,8.0,84,0.00,,,0.00,Wunderground v.1.15,2013-07-06 03:51:00,
2013-07-05 23:52:00,76.5,71.3,30.07,SW,224,11.0,11.0,84,0.00,,,0.00,Wunderground v.1.15,2013-07-06 03:52:00,
2013-07-05 23:56:00,76.4,71.2,30.07,SSW,202,5.0,8.0,84,0.00,,,0.00,Wunderground v.1.15,2013-07-06 03:56:00,
2013-07-05 23:57:00,76.5,71.3,30.07,SW,221,2.0,8.0,84,0.00,,,0.00,Wunderground v.1.15,2013-07-06 03:57:00,